XE2VP-WX Weather Reports


time (UTC)temp
C
wind
direction
speed
KPH
gust
KPH
rain 1hr
cm
rain 24hr
cm
rain mn
cm
humidity
%
barometer
mb
20260510180525 31 22 6.4 12.9 0.00 0.00 0.00 46 943.1
20260510180425 31 15 6.4 12.9 0.00 0.00 0.00 45 943.1
20260510180326 31 32 6.4 12.9 0.00 0.00 0.00 46 943.1
20260510180225 31 32 6.4 17.7 0.00 0.00 0.00 46 943.2
20260510180125 31 40 6.4 17.7 0.00 0.00 0.00 46 943.2
20260510180025 31 27 6.4 17.7 0.00 0.00 0.00 47 943.2
20260510175925 31 19 6.4 17.7 0.00 0.00 0.00 46 943.2
20260510175825 31 10 6.4 17.7 0.00 0.00 0.00 47 943.2
20260510175723 31 142 6.4 17.7 0.00 0.00 0.00 48 943.2
20260510175624 31 145 6.4 17.7 0.00 0.00 0.00 47 943.2
20260510175524 31 93 6.4 17.7 0.00 0.00 0.00 48 943.2
20260510175424 31 59 6.4 17.7 0.00 0.00 0.00 49 943.3
20260510175319 31 47 6.4 17.7 0.00 0.00 0.00 48 943.2
20260510175221 31 70 6.4 12.9 0.00 0.00 0.00 48 943.2
20260510175120 31 40 6.4 11.3 0.00 0.00 0.00 48 943.3
20260510175021 31 94 6.4 11.3 0.00 0.00 0.00 47 943.2
20260510174918 31 47 6.4 11.3 0.00 0.00 0.00 47 943.2
20260510174818 31 49 6.4 11.3 0.00 0.00 0.00 48 943.3
20260510174718 31 91 6.4 11.3 0.00 0.00 0.00 48 943.3
20260510174618 31 353 6.4 11.3 0.00 0.00 0.00 49 943.3
20260510174518 31 46 6.4 11.3 0.00 0.00 0.00 47 943.3
20260510174418 31 312 6.4 11.3 0.00 0.00 0.00 47 943.3
20260510174317 31 355 6.4 11.3 0.00 0.00 0.00 48 943.3
20260510174218 31 13 4.8 11.3 0.00 0.00 0.00 50 943.3
20260510174118 31 307 4.8 11.3 0.00 0.00 0.00 50 943.3
20260510174018 31 55 6.4 11.3 0.00 0.00 0.00 49 943.3
20260510173918 31 21 6.4 12.9 0.00 0.00 0.00 49 943.3
20260510173818 31 62 6.4 12.9 0.00 0.00 0.00 49 943.3
20260510173718 31 15 6.4 12.9 0.00 0.00 0.00 49 943.3
20260510173618 30 40 4.8 12.9 0.00 0.00 0.00 49 943.3
20260510173518 30 57 6.4 12.9 0.00 0.00 0.00 49 943.3
20260510173417 30 71 6.4 12.9 0.00 0.00 0.00 50 943.3
20260510173318 30 33 6.4 14.5 0.00 0.00 0.00 51 943.4
20260510173218 30 252 6.4 14.5 0.00 0.00 0.00 51 943.4
20260510173114 30 90 6.4 14.5 0.00 0.00 0.00 51 943.4
20260510173014 31 68 6.4 14.5 0.00 0.00 0.00 50 943.4
20260510172914 31 64 6.4 14.5 0.00 0.00 0.00 49 943.4
20260510172813 31 16 6.4 14.5 0.00 0.00 0.00 49 943.3
20260510172714 31 119 6.4 14.5 0.00 0.00 0.00 49 943.3
20260510172614 31 85 6.4 14.5 0.00 0.00 0.00 49 943.4
20260510172515 31 107 6.4 14.5 0.00 0.00 0.00 49 943.3
20260510172415 31 86 6.4 14.5 0.00 0.00 0.00 49 943.3
20260510172316 30 81 4.8 11.3 0.00 0.00 0.00 50 943.3
20260510172215 30 81 4.8 11.3 0.00 0.00 0.00 50 943.4
20260510172115 30 7 4.8 11.3 0.00 0.00 0.00 50 943.3
20260510172015 30 26 4.8 11.3 0.00 0.00 0.00 50 943.4
20260510171916 30 94 4.8 11.3 0.00 0.00 0.00 50 943.3
20260510171815 30 162 4.8 11.3 0.00 0.00 0.00 50 943.3
20260510171715 30 135 4.8 11.3 0.00 0.00 0.00 51 943.4
20260510171612 30 137 4.8 14.5 0.00 0.00 0.00 51 943.4
20260510171512 30 56 6.4 14.5 0.00 0.00 0.00 50 943.4
20260510171412 30 74 4.8 14.5 0.00 0.00 0.00 50 943.3
20260510171313 30 35 4.8 14.5 0.00 0.00 0.00 50 943.3
20260510171212 30 333 6.4 14.5 0.00 0.00 0.00 51 943.3
20260510171113 30 51 6.4 14.5 0.00 0.00 0.00 51 943.4
20260510171013 30 54 6.4 14.5 0.00 0.00 0.00 51 943.4
20260510170912 30 36 6.4 14.5 0.00 0.00 0.00 51 943.4
20260510170813 30 19 6.4 14.5 0.00 0.00 0.00 51 943.4
20260510170713 30 15 6.4 14.5 0.00 0.00 0.00 51 943.4
20260510170613 29 73 6.4 14.5 0.00 0.00 0.00 52 943.4
20260510170513 29 66 6.4 12.9 0.00 0.00 0.00 52 943.4
20260510170413 29 37 6.4 12.9 0.00 0.00 0.00 52 943.4
20260510170313 29 32 6.4 12.9 0.00 0.00 0.00 52 943.5
20260510170209 29 60 6.4 12.9 0.00 0.00 0.00 52 943.5
20260510170107 29 53 6.4 12.9 0.00 0.00 0.00 52 943.5
20260510170006 29 33 6.4 12.9 0.00 0.00 0.00 52 943.4
20260510165907 29 62 6.4 12.9 0.00 0.00 0.00 53 943.5
20260510165807 29 19 8.0 14.5 0.00 0.00 0.00 53 943.4
20260510165706 29 31 6.4 14.5 0.00 0.00 0.00 53 943.5
20260510165607 29 72 8.0 14.5 0.00 0.00 0.00 54 943.4
20260510165506 29 33 8.0 14.5 0.00 0.00 0.00 55 943.4
20260510165403 29 48 6.4 14.5 0.00 0.00 0.00 55 943.5
20260510165301 29 35 8.0 14.5 0.00 0.00 0.00 55 943.5
20260510165200 29 16 8.0 14.5 0.00 0.00 0.00 55 943.5
20260510165101 29 43 6.4 14.5 0.00 0.00 0.00 55 943.5
20260510165001 29 36 6.4 14.5 0.00 0.00 0.00 55 943.6
20260510164901 29 52 6.4 14.5 0.00 0.00 0.00 55 943.6
20260510164801 29 37 6.4 14.5 0.00 0.00 0.00 55 943.5
20260510164701 30 58 6.4 14.5 0.00 0.00 0.00 54 943.5
20260510164600 29 61 6.4 12.9 0.00 0.00 0.00 54 943.5
20260510164501 29 76 6.4 12.9 0.00 0.00 0.00 54 943.6
20260510164401 30 85 4.8 12.9 0.00 0.00 0.00 55 943.6
20260510164301 30 85 4.8 9.7 0.00 0.00 0.00 55 943.6
20260510164201 29 127 4.8 9.7 0.00 0.00 0.00 55 943.6
20260510164057 29 151 4.8 9.7 0.00 0.00 0.00 54 943.6
20260510163956 29 100 4.8 9.7 0.00 0.00 0.00 54 943.6
20260510163857 29 127 4.8 9.7 0.00 0.00 0.00 55 943.6
20260510163757 29 57 6.4 11.3 0.00 0.00 0.00 56 943.6
20260510163657 29 74 4.8 11.3 0.00 0.00 0.00 56 943.6
20260510163556 29 19 4.8 11.3 0.00 0.00 0.00 55 943.6
20260510163457 29 32 4.8 11.3 0.00 0.00 0.00 55 943.6
20260510163356 29 354 4.8 11.3 0.00 0.00 0.00 56 943.6
20260510163257 29 41 6.4 12.9 0.00 0.00 0.00 55 943.6
20260510163157 29 73 6.4 12.9 0.00 0.00 0.00 56 943.6
20260510163056 29 139 6.4 12.9 0.00 0.00 0.00 56 943.6
20260510162957 29 58 6.4 12.9 0.00 0.00 0.00 56 943.6
20260510162856 28 79 6.4 12.9 0.00 0.00 0.00 56 943.6
20260510162757 28 55 4.8 12.9 0.00 0.00 0.00 57 943.6
20260510162657 28 99 6.4 12.9 0.00 0.00 0.00 56 943.6
20260510162557 28 72 6.4 12.9 0.00 0.00 0.00 57 943.6
20260510162457 28 45 6.4 12.9 0.00 0.00 0.00 57 943.6
20260510162357 28 73 6.4 12.9 0.00 0.00 0.00 57 943.6
20260510162257 28 62 6.4 12.9 0.00 0.00 0.00 57 943.6
20260510162157 28 124 6.4 12.9 0.00 0.00 0.00 57 943.6
20260510162056 28 104 6.4 12.9 0.00 0.00 0.00 57 943.6
20260510161957 28 41 4.8 11.3 0.00 0.00 0.00 57 943.6
20260510161856 28 156 4.8 12.9 0.00 0.00 0.00 57 943.6
20260510161757 28 87 6.4 12.9 0.00 0.00 0.00 58 943.6
20260510161657 28 17 6.4 14.5 0.00 0.00 0.00 59 943.6
20260510161558 28 56 6.4 14.5 0.00 0.00 0.00 59 943.6
20260510161457 28 61 6.4 14.5 0.00 0.00 0.00 59 943.6
20260510161357 28 85 6.4 14.5 0.00 0.00 0.00 58 943.6
20260510161257 28 56 6.4 14.5 0.00 0.00 0.00 58 943.6
20260510161157 28 328 6.4 14.5 0.00 0.00 0.00 58 943.6
20260510161058 28 197 6.4 14.5 0.00 0.00 0.00 59 943.6
20260510160957 28 71 6.4 14.5 0.00 0.00 0.00 59 943.6
20260510160858 28 80 6.4 14.5 0.00 0.00 0.00 59 943.6
20260510160757 28 66 6.4 14.5 0.00 0.00 0.00 58 943.6
20260510160655 28 106 6.4 12.9 0.00 0.00 0.00 58 943.5
20260510160556 28 70 6.4 12.9 0.00 0.00 0.00 58 943.5
20260510160456 28 137 6.4 12.9 0.00 0.00 0.00 58 943.5
20260510160355 28 76 6.4 12.9 0.00 0.00 0.00 59 943.5
20260510160255 28 150 6.4 14.5 0.00 0.00 0.00 59 943.5
20260510160156 28 109 8.0 14.5 0.00 0.00 0.00 59 943.5
20260510160056 28 127 8.0 14.5 0.00 0.00 0.00 60 943.5
20260510155956 28 77 8.0 14.5 0.00 0.00 0.00 60 943.5
20260510155856 28 53 8.0 14.5 0.00 0.00 0.00 60 943.5
20260510155755 28 72 8.0 14.5 0.00 0.00 0.00 60 943.6
20260510155656 28 56 8.0 16.1 0.00 0.00 0.00 60 943.5
20260510155556 28 79 8.0 16.1 0.00 0.00 0.00 60 943.6
20260510155456 28 54 8.0 16.1 0.00 0.00 0.00 60 943.6
20260510155356 28 88 8.0 16.1 0.00 0.00 0.00 59 943.5
20260510155256 28 42 8.0 16.1 0.00 0.00 0.00 60 943.6
20260510155155 28 79 6.4 16.1 0.00 0.00 0.00 60 943.5
20260510155056 28 66 8.0 16.1 0.00 0.00 0.00 60 943.6
20260510154955 28 88 8.0 16.1 0.00 0.00 0.00 60 943.6
20260510154856 28 104 6.4 16.1 0.00 0.00 0.00 60 943.6
20260510154756 28 78 6.4 16.1 0.00 0.00 0.00 59 943.6
20260510154655 28 66 6.4 16.1 0.00 0.00 0.00 59 943.6
20260510154556 28 26 6.4 11.3 0.00 0.00 0.00 59 943.7
20260510154456 28 40 6.4 11.3 0.00 0.00 0.00 59 943.6
20260510154356 27 47 6.4 11.3 0.00 0.00 0.00 60 943.7
20260510154255 27 98 6.4 14.5 0.00 0.00 0.00 60 943.7
20260510154152 27 46 6.4 14.5 0.00 0.00 0.00 60 943.7
20260510154052 27 41 6.4 14.5 0.00 0.00 0.00 60 943.7
20260510153952 27 78 6.4 14.5 0.00 0.00 0.00 61 943.7
20260510153852 27 80 6.4 14.5 0.00 0.00 0.00 61 943.7
20260510153752 27 75 8.0 14.5 0.00 0.00 0.00 61 943.7
20260510153652 27 73 6.4 14.5 0.00 0.00 0.00 61 943.7
20260510153552 27 56 6.4 14.5 0.00 0.00 0.00 62 943.7
20260510153452 27 69 6.4 14.5 0.00 0.00 0.00 61 943.7
20260510153352 27 86 6.4 14.5 0.00 0.00 0.00 61 943.7
20260510153251 27 90 6.4 14.5 0.00 0.00 0.00 60 943.6
20260510153152 27 71 6.4 12.9 0.00 0.00 0.00 61 943.7
20260510153052 27 72 6.4 12.9 0.00 0.00 0.00 61 943.7
20260510152952 27 70 6.4 12.9 0.00 0.00 0.00 60 943.7
20260510152852 27 77 6.4 12.9 0.00 0.00 0.00 60 943.7
20260510152751 27 64 4.8 12.9 0.00 0.00 0.00 61 943.6
20260510152652 27 124 4.8 12.9 0.00 0.00 0.00 61 943.7
20260510152552 27 123 4.8 12.9 0.00 0.00 0.00 61 943.7
20260510152452 27 32 4.8 12.9 0.00 0.00 0.00 61 943.7
20260510152352 27 39 4.8 12.9 0.00 0.00 0.00 61 943.7
20260510152252 27 74 4.8 12.9 0.00 0.00 0.00 60 943.7
20260510152152 27 104 4.8 12.9 0.00 0.00 0.00 60 943.7
20260510152052 27 19 4.8 12.9 0.00 0.00 0.00 61 943.7
20260510151952 27 346 6.4 12.9 0.00 0.00 0.00 61 943.7
20260510151852 27 80 6.4 12.9 0.00 0.00 0.00 61 943.7
20260510151752 27 127 6.4 12.9 0.00 0.00 0.00 60 943.7
20260510151652 27 92 6.4 12.9 0.00 0.00 0.00 61 943.7
20260510151552 27 112 4.8 12.9 0.00 0.00 0.00 61 943.7
20260510151453 27 70 4.8 12.9 0.00 0.00 0.00 61 943.7
20260510151352 27 94 4.8 12.9 0.00 0.00 0.00 61 943.6
20260510151252 27 36 4.8 12.9 0.00 0.00 0.00 61 943.6
20260510151153 27 40 4.8 12.9 0.00 0.00 0.00 60 943.6
20260510151052 27 91 4.8 12.9 0.00 0.00 0.00 59 943.6
20260510150953 27 76 4.8 9.7 0.00 0.00 0.00 59 943.6
20260510150851 27 63 4.8 9.7 0.00 0.00 0.00 60 943.6
20260510150747 27 71 4.8 9.7 0.00 0.00 0.00 60 943.6
20260510150647 27 338 4.8 9.7 0.00 0.00 0.00 61 943.6
20260510150546 27 84 4.8 9.7 0.00 0.00 0.00 61 943.6
20260510150445 27 75 4.8 9.7 0.00 0.00 0.00 61 943.6
20260510150345 27 118 4.8 9.7 0.00 0.00 0.00 61 943.6
20260510150243 27 173 4.8 9.7 0.00 0.00 0.00 61 943.6
20260510150142 27 64 4.8 9.7 0.00 0.00 0.00 61 943.6
20260510150041 27 99 6.4 9.7 0.00 0.00 0.00 61 943.6
20260510145942 27 96 4.8 9.7 0.00 0.00 0.00 61 943.5
20260510145842 27 61 6.4 9.7 0.00 0.00 0.00 61 943.6
20260510145740 27 77 6.4 9.7 0.00 0.00 0.00 62 943.5
20260510145640 27 337 6.4 9.7 0.00 0.00 0.00 62 943.5
20260510145539 27 150 6.4 9.7 0.00 0.00 0.00 62 943.5
20260510145439 26 88 4.8 9.7 0.00 0.00 0.00 63 943.5
20260510145339 26 114 4.8 9.7 0.00 0.00 0.00 63 943.5
20260510145239 26 83 6.4 12.9 0.00 0.00 0.00 64 943.6
20260510145139 26 39 6.4 12.9 0.00 0.00 0.00 63 943.6
20260510145037 26 46 6.4 12.9 0.00 0.00 0.00 63 943.6
20260510144937 26 72 6.4 14.5 0.00 0.00 0.00 62 943.6
20260510144837 26 43 6.4 14.5 0.00 0.00 0.00 62 943.6
20260510144738 26 50 6.4 14.5 0.00 0.00 0.00 63 943.6
20260510144638 26 67 6.4 14.5 0.00 0.00 0.00 63 943.6
20260510144537 26 21 6.4 14.5 0.00 0.00 0.00 64 943.7
20260510144438 26 40 6.4 14.5 0.00 0.00 0.00 63 943.7
20260510144337 26 118 6.4 14.5 0.00 0.00 0.00 63 943.7
20260510144238 26 101 6.4 14.5 0.00 0.00 0.00 63 943.7
20260510144140 26 142 6.4 14.5 0.00 0.00 0.00 63 943.6
20260510144039 26 100 6.4 14.5 0.00 0.00 0.00 62 943.6
20260510143939 26 130 6.4 14.5 0.00 0.00 0.00 62 943.5
20260510143839 26 132 4.8 11.3 0.00 0.00 0.00 62 943.6
20260510143739 26 141 4.8 11.3 0.00 0.00 0.00 62 943.6
20260510143639 26 168 4.8 11.3 0.00 0.00 0.00 62 943.5
20260510143539 26 169 4.8 11.3 0.00 0.00 0.00 62 943.6
20260510143439 26 167 6.4 11.3 0.00 0.00 0.00 62 943.6
20260510143338 26 200 6.4 11.3 0.00 0.00 0.00 63 943.6
20260510143239 26 153 6.4 11.3 0.00 0.00 0.00 63 943.6
20260510143139 26 149 6.4 11.3 0.00 0.00 0.00 63 943.6
20260510143040 26 123 6.4 11.3 0.00 0.00 0.00 63 943.6
20260510142939 26 135 6.4 14.5 0.00 0.00 0.00 64 943.6
20260510142840 26 173 8.0 14.5 0.00 0.00 0.00 64 943.6
20260510142739 26 147 8.0 14.5 0.00 0.00 0.00 64 943.6
20260510142639 26 170 8.0 14.5 0.00 0.00 0.00 64 943.6
20260510142539 26 161 8.0 14.5 0.00 0.00 0.00 64 943.5
20260510142439 26 152 8.0 14.5 0.00 0.00 0.00 64 943.6
20260510142340 26 156 8.0 14.5 0.00 0.00 0.00 64 943.6
20260510142240 26 128 8.0 14.5 0.00 0.00 0.00 64 943.6
20260510142140 26 144 8.0 14.5 0.00 0.00 0.00 65 943.6
20260510142038 26 201 8.0 14.5 0.00 0.00 0.00 65 943.6
20260510141938 26 165 8.0 14.5 0.00 0.00 0.00 65 943.6
20260510141838 26 158 6.4 12.9 0.00 0.00 0.00 65 943.6
20260510141739 26 133 6.4 12.9 0.00 0.00 0.00 65 943.6
20260510141638 26 148 6.4 12.9 0.00 0.00 0.00 65 943.6
20260510141538 26 145 6.4 12.9 0.00 0.00 0.00 65 943.6
20260510141438 26 147 6.4 12.9 0.00 0.00 0.00 65 943.6
20260510141338 26 167 6.4 12.9 0.00 0.00 0.00 65 943.6
20260510141239 26 157 4.8 9.7 0.00 0.00 0.00 65 943.6
20260510141139 26 160 4.8 9.7 0.00 0.00 0.00 65 943.6
20260510141038 26 195 4.8 11.3 0.00 0.00 0.00 65 943.7
20260510140937 26 148 4.8 14.5 0.00 0.00 0.00 65 943.7
20260510140835 26 183 4.8 14.5 0.00 0.00 0.00 65 943.7
20260510140735 26 171 6.4 14.5 0.00 0.00 0.00 64 943.7
20260510140634 26 193 6.4 14.5 0.00 0.00 0.00 64 943.7
20260510140534 26 231 6.4 14.5 0.00 0.00 0.00 65 943.6
20260510140430 26 243 6.4 14.5 0.00 0.00 0.00 65 943.7
20260510140331 26 178 6.4 14.5 0.00 0.00 0.00 65 943.7
20260510140230 26 173 6.4 14.5 0.00 0.00 0.00 65 943.6
20260510140129 26 207 6.4 14.5 0.00 0.00 0.00 65 943.7
20260510140029 26 182 6.4 14.5 0.00 0.00 0.00 65 943.6
20260510135930 26 183 6.4 14.5 0.00 0.00 0.00 65 943.6
20260510135829 26 162 4.8 12.9 0.00 0.00 0.00 65 943.6
20260510135731 26 176 4.8 12.9 0.00 0.00 0.00 65 943.6
20260510135631 26 176 4.8 12.9 0.00 0.00 0.00 65 943.6
20260510135530 26 260 4.8 12.9 0.00 0.00 0.00 65 943.6
20260510135431 26 192 6.4 14.5 0.00 0.00 0.00 65 943.6
20260510135331 26 222 4.8 14.5 0.00 0.00 0.00 65 943.6
20260510135231 25 174 6.4 14.5 0.00 0.00 0.00 66 943.6
20260510135131 25 210 6.4 14.5 0.00 0.00 0.00 66 943.6
20260510135031 25 187 6.4 14.5 0.00 0.00 0.00 66 943.6
20260510134931 25 163 6.4 14.5 0.00 0.00 0.00 67 943.6
20260510134831 25 166 6.4 14.5 0.00 0.00 0.00 67 943.6
20260510134731 25 186 6.4 14.5 0.00 0.00 0.00 67 943.6
20260510134627 25 146 6.4 14.5 0.00 0.00 0.00 67 943.6
20260510134527 25 204 4.8 14.5 0.00 0.00 0.00 67 943.5
20260510134427 25 167 4.8 9.7 0.00 0.00 0.00 67 943.6
20260510134326 25 203 4.8 9.7 0.00 0.00 0.00 67 943.6
20260510134227 25 138 4.8 9.7 0.00 0.00 0.00 67 943.6
20260510134129 25 177 4.8 9.7 0.00 0.00 0.00 68 943.6
20260510134029 25 233 4.8 9.7 0.00 0.00 0.00 68 943.6
20260510133928 25 168 4.8 9.7 0.00 0.00 0.00 67 943.6
20260510133828 25 198 4.8 9.7 0.00 0.00 0.00 68 943.6
20260510133727 25 171 3.2 9.7 0.00 0.00 0.00 68 943.6
20260510133627 25 149 3.2 9.7 0.00 0.00 0.00 68 943.6
20260510133528 25 183 4.8 9.7 0.00 0.00 0.00 69 943.6
20260510133429 25 176 4.8 9.7 0.00 0.00 0.00 69 943.6
20260510133327 25 182 4.8 9.7 0.00 0.00 0.00 69 943.6
20260510133227 25 181 4.8 9.7 0.00 0.00 0.00 69 943.5
20260510133127 25 201 4.8 9.7 0.00 0.00 0.00 69 943.5
20260510133028 25 193 4.8 8.0 0.00 0.00 0.00 69 943.5
20260510132930 25 151 4.8 8.0 0.00 0.00 0.00 69 943.5
20260510132828 25 194 4.8 8.0 0.00 0.00 0.00 69 943.5
20260510132726 25 140 4.8 9.7 0.00 0.00 0.00 69 943.5
20260510132627 25 163 4.8 9.7 0.00 0.00 0.00 69 943.5
20260510132527 25 175 4.8 9.7 0.00 0.00 0.00 69 943.5
20260510132428 25 135 4.8 9.7 0.00 0.00 0.00 69 943.5
20260510132327 25 123 4.8 9.7 0.00 0.00 0.00 69 943.5
20260510132229 25 170 4.8 9.7 0.00 0.00 0.00 69 943.5
20260510132128 25 158 4.8 9.7 0.00 0.00 0.00 69 943.5
20260510132025 25 235 4.8 9.7 0.00 0.00 0.00 69 943.5
20260510131926 25 192 4.8 9.7 0.00 0.00 0.00 69 943.4
20260510131829 25 185 3.2 9.7 0.00 0.00 0.00 69 943.4
20260510131726 25 172 3.2 9.7 0.00 0.00 0.00 70 943.4
20260510131625 25 159 3.2 9.7 0.00 0.00 0.00 70 943.5
20260510131525 25 187 3.2 9.7 0.00 0.00 0.00 70 943.5
20260510131425 24 279 3.2 8.0 0.00 0.00 0.00 70 943.4
20260510131325 24 177 3.2 8.0 0.00 0.00 0.00 70 943.4
20260510131224 24 198 3.2 9.7 0.00 0.00 0.00 70 943.4
20260510131123 24 216 3.2 9.7 0.00 0.00 0.00 70 943.4
20260510131021 24 203 3.2 9.7 0.00 0.00 0.00 70 943.4
20260510130921 24 183 3.2 9.7 0.00 0.00 0.00 70 943.4
20260510130824 24 194 3.2 9.7 0.00 0.00 0.00 70 943.4
20260510130723 24 17 3.2 9.7 0.00 0.00 0.00 71 943.4
20260510130621 24 61 4.8 9.7 0.00 0.00 0.00 71 943.4
20260510130520 24 226 4.8 9.7 0.00 0.00 0.00 71 943.4
20260510130420 24 188 4.8 9.7 0.00 0.00 0.00 71 943.4
20260510130320 24 178 4.8 11.3 0.00 0.00 0.00 71 943.4
20260510130219 24 225 4.8 11.3 0.00 0.00 0.00 72 943.3
20260510130119 24 223 4.8 11.3 0.00 0.00 0.00 72 943.4
20260510130018 24 208 4.8 11.3 0.00 0.00 0.00 72 943.3
20260510125919 24 0 4.8 11.3 0.00 0.00 0.00 72 943.3
20260510125816 24 181 6.4 11.3 0.00 0.00 0.00 72 943.3
20260510125716 24 206 6.4 11.3 0.00 0.00 0.00 73 943.3
20260510125615 24 168 6.4 11.3 0.00 0.00 0.00 73 943.3
20260510125517 24 176 4.8 11.3 0.00 0.00 0.00 73 943.3
20260510125417 24 180 4.8 11.3 0.00 0.00 0.00 73 943.3
20260510125318 24 181 4.8 11.3 0.00 0.00 0.00 73 943.3
20260510125215 24 193 4.8 11.3 0.00 0.00 0.00 73 943.3
20260510125116 24 238 4.8 11.3 0.00 0.00 0.00 74 943.3
20260510125016 24 227 4.8 11.3 0.00 0.00 0.00 74 943.3
20260510124916 24 143 3.2 11.3 0.00 0.00 0.00 74 943.2
20260510124819 24 204 4.8 11.3 0.00 0.00 0.00 74 943.2
20260510124717 24 219 4.8 11.3 0.00 0.00 0.00 74 943.2
20260510124618 24 153 4.8 11.3 0.00 0.00 0.00 74 943.2
20260510124508 24 213 4.8 11.3 0.00 0.00 0.00 74 943.2
20260510124408 24 200 4.8 11.3 0.00 0.00 0.00 75 943.2
20260510124308 24 202 4.8 11.3 0.00 0.00 0.00 75 943.2
20260510124209 23 212 4.8 11.3 0.00 0.00 0.00 75 943.2
20260510124108 23 187 4.8 11.3 0.00 0.00 0.00 75 943.2
20260510124009 23 201 4.8 9.7 0.00 0.00 0.00 75 943.2
20260510123908 23 167 4.8 9.7 0.00 0.00 0.00 75 943.2
20260510123809 23 260 4.8 9.7 0.00 0.00 0.00 75 943.2
20260510123709 23 16 4.8 9.7 0.00 0.00 0.00 75 943.2
20260510123608 23 207 3.2 8.0 0.00 0.00 0.00 76 943.2
20260510123501 23 203 3.2 8.0 0.00 0.00 0.00 76 943.2
20260510123400 23 232 3.2 6.4 0.00 0.00 0.00 76 943.2
20260510123301 23 252 3.2 6.4 0.00 0.00 0.00 76 943.1
20260510123201 23 241 3.2 4.8 0.00 0.00 0.00 76 943.1
20260510123101 23 200 3.2 4.8 0.00 0.00 0.00 76 943.1
20260510123001 23 261 3.2 4.8 0.00 0.00 0.00 76 943.1
20260510122901 23 248 3.2 4.8 0.00 0.00 0.00 76 943.1
20260510122802 23 191 1.6 4.8 0.00 0.00 0.00 75 943.1
20260510122701 23 302 1.6 4.8 0.00 0.00 0.00 75 943.1
20260510122601 23 295 1.6 4.8 0.00 0.00 0.00 75 943.1
20260510122501 23 239 1.6 4.8 0.00 0.00 0.00 74 943.1
20260510122401 23 221 1.6 3.2 0.00 0.00 0.00 73 943.0
20260510122300 23 195 1.6 3.2 0.00 0.00 0.00 72 943.0
20260510122201 23 187 0.0 3.2 0.00 0.00 0.00 72 942.9
20260510122101 23 178 0.0 3.2 0.00 0.00 0.00 72 942.9
20260510122000 23 189 0.0 3.2 0.00 0.00 0.00 72 942.9
20260510121901 23 224 0.0 1.6 0.00 0.00 0.00 72 942.9
20260510121803 23 249 0.0 1.6 0.00 0.00 0.00 71 942.9
20260510121701 23 0 0.0 1.6 0.00 0.00 0.00 71 942.9
20260510121601 23 0 0.0 1.6 0.00 0.00 0.00 72 942.9
20260510121501 23 242 0.0 1.6 0.00 0.00 0.00 72 943.0
20260510121401 23 0 0.0 1.6 0.00 0.00 0.00 72 943.0
20260510121301 23 0 0.0 1.6 0.00 0.00 0.00 72 943.0
20260510121147 23 229 0.0 1.6 0.00 0.00 0.00 72 943.0
20260510121048 23 207 0.0 1.6 0.00 0.00 0.00 72 943.0
20260510120948 23 0 0.0 1.6 0.00 0.00 0.00 72 943.0
20260510120847 23 0 0.0 1.6 0.00 0.00 0.00 72 943.0
20260510120748 23 0 0.0 1.6 0.00 0.00 0.00 71 943.0
20260510120648 23 0 0.0 1.6 0.00 0.00 0.00 71 943.0
20260510120547 23 0 0.0 1.6 0.00 0.00 0.00 71 943.0
20260510120447 23 0 0.0 1.6 0.00 0.00 0.00 71 943.0
20260510120348 23 0 0.0 1.6 0.00 0.00 0.00 72 943.0
20260510120248 23 0 0.0 1.6 0.00 0.00 0.00 72 943.0
20260510120147 23 195 0.0 1.6 0.00 0.00 0.00 72 943.0
20260510120048 23 227 0.0 1.6 0.00 0.00 0.00 72 943.0
20260510115947 23 0 0.0 1.6 0.00 0.00 0.00 72 943.0
20260510115848 23 0 0.0 1.6 0.00 0.00 0.00 72 943.0
20260510115748 23 0 0.0 1.6 0.00 0.00 0.00 71 943.0
20260510115647 23 0 0.0 1.6 0.00 0.00 0.00 71 943.0
20260510115548 23 0 0.0 3.2 0.00 0.00 0.00 71 943.0
20260510115433 23 216 0.0 3.2 0.00 0.00 0.00 72 943.0
20260510115334 23 211 0.0 3.2 0.00 0.00 0.00 71 943.0
20260510115232 23 0 0.0 3.2 0.00 0.00 0.00 71 943.0
20260510115133 23 230 0.0 3.2 0.00 0.00 0.00 71 943.0
20260510115018 23 0 0.0 3.2 0.00 0.00 0.00 71 943.0
20260510114918 23 0 0.0 4.8 0.00 0.00 0.00 71 943.0
20260510114818 23 0 1.6 4.8 0.00 0.00 0.00 70 943.0
20260510114719 23 0 1.6 4.8 0.00 0.00 0.00 70 942.9
20260510114601 23 188 1.6 4.8 0.00 0.00 0.00 71 942.9
20260510114501 23 0 1.6 4.8 0.00 0.00 0.00 71 942.9
20260510114401 23 0 1.6 4.8 0.00 0.00 0.00 70 942.9
20260510114302 23 0 3.2 4.8 0.00 0.00 0.00 70 943.0
20260510114202 23 308 3.2 4.8 0.00 0.00 0.00 70 943.0
20260510114102 23 312 3.2 4.8 0.00 0.00 0.00 70 943.0
20260510114002 23 322 3.2 6.4 0.00 0.00 0.00 70 943.0
20260510113901 23 298 3.2 6.4 0.00 0.00 0.00 69 943.0
20260510113802 23 302 3.2 6.4 0.00 0.00 0.00 69 943.0
20260510113703 23 288 3.2 6.4 0.00 0.00 0.00 69 943.0
20260510113601 23 275 3.2 6.4 0.00 0.00 0.00 69 942.9
20260510113502 23 298 3.2 6.4 0.00 0.00 0.00 69 942.9
20260510113402 23 320 3.2 6.4 0.00 0.00 0.00 69 942.9
20260510113303 23 326 3.2 6.4 0.00 0.00 0.00 69 942.9
20260510113202 23 350 4.8 6.4 0.00 0.00 0.00 68 942.9
20260510113102 23 0 4.8 6.4 0.00 0.00 0.00 68 942.9
20260510113002 23 333 3.2 6.4 0.00 0.00 0.00 68 942.9
20260510112901 23 296 3.2 6.4 0.00 0.00 0.00 68 943.0
20260510112802 23 301 4.8 6.4 0.00 0.00 0.00 68 942.9
20260510112702 23 303 4.8 9.7 0.00 0.00 0.00 68 942.9
20260510112601 23 311 4.8 9.7 0.00 0.00 0.00 68 942.9
20260510112502 23 329 4.8 9.7 0.00 0.00 0.00 68 942.9
20260510112402 23 306 4.8 9.7 0.00 0.00 0.00 68 942.9
20260510112251 23 293 4.8 9.7 0.00 0.00 0.00 68 942.9
20260510112152 23 294 4.8 9.7 0.00 0.00 0.00 68 942.9
20260510112051 23 290 4.8 9.7 0.00 0.00 0.00 68 942.9
20260510111952 23 292 4.8 9.7 0.00 0.00 0.00 67 942.9
20260510111846 23 309 6.4 9.7 0.00 0.00 0.00 67 942.9
20260510111740 23 312 6.4 9.7 0.00 0.00 0.00 67 942.9
20260510111639 23 334 6.4 9.7 0.00 0.00 0.00 67 942.9
20260510111540 23 315 6.4 9.7 0.00 0.00 0.00 67 942.9
20260510111439 23 328 6.4 9.7 0.00 0.00 0.00 67 942.9
20260510111334 23 330 6.4 9.7 0.00 0.00 0.00 67 942.9
20260510111233 23 329 6.4 9.7 0.00 0.00 0.00 67 942.9
20260510111134 23 314 6.4 9.7 0.00 0.00 0.00 67 942.9
20260510111034 23 321 6.4 9.7 0.00 0.00 0.00 67 942.9
20260510110934 23 307 6.4 9.7 0.00 0.00 0.00 67 942.9
20260510110834 23 304 6.4 9.7 0.00 0.00 0.00 67 942.8
20260510110734 23 334 6.4 9.7 0.00 0.00 0.00 67 942.8
20260510110634 23 319 6.4 9.7 0.00 0.00 0.00 67 942.8
20260510110533 23 297 6.4 9.7 0.00 0.00 0.00 67 942.8
20260510110434 23 291 6.4 9.7 0.00 0.00 0.00 67 942.8
20260510110335 23 313 6.4 9.7 0.00 0.00 0.00 67 942.8
20260510110234 23 304 6.4 9.7 0.00 0.00 0.00 67 942.8
20260510110134 23 292 4.8 9.7 0.00 0.00 0.00 67 942.8
20260510110034 23 311 4.8 9.7 0.00 0.00 0.00 68 942.8
20260510105935 23 294 4.8 9.7 0.00 0.00 0.00 68 942.8
20260510105834 23 310 3.2 6.4 0.00 0.00 0.00 68 942.7
20260510105735 23 311 3.2 6.4 0.00 0.00 0.00 68 942.7
20260510105635 23 293 3.2 6.4 0.00 0.00 0.00 68 942.7
20260510105533 23 299 3.2 6.4 0.00 0.00 0.00 68 942.7
20260510105435 23 286 3.2 6.4 0.00 0.00 0.00 68 942.7
20260510105334 23 268 3.2 6.4 0.00 0.00 0.00 68 942.7
20260510105234 23 312 4.8 6.4 0.00 0.00 0.00 67 942.7
20260510105134 23 310 4.8 6.4 0.00 0.00 0.00 67 942.7
20260510105035 23 297 4.8 8.0 0.00 0.00 0.00 67 942.7
20260510104934 24 281 4.8 8.0 0.00 0.00 0.00 67 942.7
20260510104833 24 306 4.8 8.0 0.00 0.00 0.00 67 942.7
20260510104734 24 294 4.8 8.0 0.00 0.00 0.00 67 942.7
20260510104635 24 275 6.4 8.0 0.00 0.00 0.00 67 942.7
20260510104534 24 269 6.4 8.0 0.00 0.00 0.00 67 942.7
20260510104434 24 288 6.4 8.0 0.00 0.00 0.00 67 942.7
20260510104334 24 297 6.4 8.0 0.00 0.00 0.00 67 942.7
20260510104234 24 294 6.4 8.0 0.00 0.00 0.00 67 942.7
20260510104134 24 274 6.4 8.0 0.00 0.00 0.00 67 942.7
20260510104034 24 290 6.4 8.0 0.00 0.00 0.00 67 942.7
20260510103935 24 301 6.4 8.0 0.00 0.00 0.00 67 942.7
20260510103835 24 293 4.8 8.0 0.00 0.00 0.00 67 942.6
20260510103735 24 300 4.8 8.0 0.00 0.00 0.00 68 942.6
20260510103634 24 307 4.8 8.0 0.00 0.00 0.00 68 942.6
20260510103534 24 299 4.8 8.0 0.00 0.00 0.00 69 942.6
20260510103435 24 318 3.2 8.0 0.00 0.00 0.00 71 942.6
20260510103335 24 258 3.2 8.0 0.00 0.00 0.00 71 942.6
20260510103234 24 271 3.2 8.0 0.00 0.00 0.00 72 942.6
20260510103135 24 258 3.2 8.0 0.00 0.00 0.00 72 942.6
20260510103035 24 256 3.2 8.0 0.00 0.00 0.00 72 942.6
20260510102934 24 243 3.2 8.0 0.00 0.00 0.00 72 942.5
20260510102835 24 243 3.2 8.0 0.00 0.00 0.00 72 942.5
20260510102735 24 223 3.2 8.0 0.00 0.00 0.00 72 942.5
20260510102635 24 236 3.2 8.0 0.00 0.00 0.00 72 942.5
20260510102535 24 234 3.2 6.4 0.00 0.00 0.00 72 942.5
20260510102434 24 229 3.2 6.4 0.00 0.00 0.00 72 942.5
20260510102334 24 229 3.2 6.4 0.00 0.00 0.00 72 942.5
20260510102220 24 208 3.2 6.4 0.00 0.00 0.00 72 942.5
20260510102105 24 180 4.8 6.4 0.00 0.00 0.00 72 942.5
20260510102002 24 222 4.8 6.4 0.00 0.00 0.00 72 942.5
20260510101904 24 254 3.2 6.4 0.00 0.00 0.00 72 942.5
20260510101803 24 182 3.2 6.4 0.00 0.00 0.00 72 942.5
20260510101703 24 257 3.2 6.4 0.00 0.00 0.00 71 942.5
20260510101605 24 242 3.2 6.4 0.00 0.00 0.00 71 942.5
20260510101503 24 220 3.2 6.4 0.00 0.00 0.00 71 942.5
20260510101403 24 202 3.2 8.0 0.00 0.00 0.00 71 942.5
20260510101303 24 291 3.2 8.0 0.00 0.00 0.00 71 942.5
20260510101203 24 235 3.2 8.0 0.00 0.00 0.00 71 942.5
20260510101103 24 155 3.2 8.0 0.00 0.00 0.00 71 942.5
20260510101004 24 182 3.2 8.0 0.00 0.00 0.00 71 942.5
20260510100853 24 164 3.2 8.0 0.00 0.00 0.00 71 942.5
20260510100753 24 230 3.2 8.0 0.00 0.00 0.00 71 942.5
20260510100654 24 233 1.6 8.0 0.00 0.00 0.00 71 942.5
20260510100554 24 198 1.6 8.0 0.00 0.00 0.00 71 942.5
20260510100453 24 206 1.6 8.0 0.00 0.00 0.00 71 942.5
20260510100350 24 223 1.6 8.0 0.00 0.00 0.00 70 942.5
20260510100250 24 242 1.6 4.8 0.00 0.00 0.00 70 942.5
20260510100150 24 213 1.6 4.8 0.00 0.00 0.00 70 942.5
20260510100050 24 263 1.6 4.8 0.00 0.00 0.00 70 942.5
20260510095950 24 190 1.6 4.8 0.00 0.00 0.00 70 942.5
20260510095850 24 0 3.2 4.8 0.00 0.00 0.00 70 942.5
20260510095749 24 212 3.2 4.8 0.00 0.00 0.00 70 942.5
20260510095635 25 244 3.2 4.8 0.00 0.00 0.00 69 942.5
20260510095535 25 278 3.2 4.8 0.00 0.00 0.00 69 942.5
20260510095421 25 167 3.2 4.8 0.00 0.00 0.00 69 942.5
20260510095320 25 229 3.2 4.8 0.00 0.00 0.00 69 942.5
20260510095220 25 250 3.2 4.8 0.00 0.00 0.00 69 942.5
20260510095120 25 166 3.2 4.8 0.00 0.00 0.00 69 942.5
20260510095021 25 200 3.2 4.8 0.00 0.00 0.00 69 942.5
20260510094920 25 182 1.6 4.8 0.00 0.00 0.00 69 942.5
20260510094820 25 163 1.6 4.8 0.00 0.00 0.00 69 942.5
20260510094720 25 257 1.6 4.8 0.00 0.00 0.00 68 942.5
20260510094620 25 184 1.6 4.8 0.00 0.00 0.00 68 942.5
20260510094520 25 225 1.6 4.8 0.00 0.00 0.00 68 942.5
20260510094421 25 192 1.6 4.8 0.00 0.00 0.00 68 942.5
20260510094320 25 194 1.6 4.8 0.00 0.00 0.00 68 942.5
20260510094220 25 238 0.0 3.2 0.00 0.00 0.00 68 942.4
20260510094120 25 0 0.0 3.2 0.00 0.00 0.00 68 942.4
20260510094020 25 185 0.0 3.2 0.00 0.00 0.00 67 942.4
20260510093920 25 210 0.0 3.2 0.00 0.00 0.00 67 942.4
20260510093820 25 173 0.0 3.2 0.00 0.00 0.00 67 942.4
20260510093721 25 179 0.0 3.2 0.00 0.00 0.00 66 942.4
20260510093620 25 0 0.0 1.6 0.00 0.00 0.00 66 942.5
20260510093521 25 0 0.0 1.6 0.00 0.00 0.00 66 942.5
20260510093403 25 0 0.0 1.6 0.00 0.00 0.00 65 942.5
20260510093303 25 0 0.0 1.6 0.00 0.00 0.00 65 942.5
20260510093204 25 0 0.0 1.6 0.00 0.00 0.00 65 942.5
20260510093104 25 0 0.0 1.6 0.00 0.00 0.00 65 942.5
20260510093003 25 0 0.0 1.6 0.00 0.00 0.00 65 942.5
20260510092903 25 0 0.0 1.6 0.00 0.00 0.00 64 942.5
20260510092803 25 0 0.0 1.6 0.00 0.00 0.00 64 942.5
20260510092704 25 131 0.0 3.2 0.00 0.00 0.00 64 942.5
20260510092604 25 0 1.6 3.2 0.00 0.00 0.00 64 942.5
20260510092504 25 113 1.6 3.2 0.00 0.00 0.00 63 942.5
20260510092404 25 90 1.6 3.2 0.00 0.00 0.00 63 942.5
20260510092306 25 0 1.6 4.8 0.00 0.00 0.00 63 942.5
20260510092204 25 0 1.6 4.8 0.00 0.00 0.00 62 942.5
20260510092104 25 0 3.2 4.8 0.00 0.00 0.00 62 942.5
20260510092004 25 90 3.2 4.8 0.00 0.00 0.00 62 942.5
20260510091836 25 70 3.2 4.8 0.00 0.00 0.00 62 942.5
20260510091721 25 121 3.2 4.8 0.00 0.00 0.00 62 942.5
20260510091605 25 145 3.2 4.8 0.00 0.00 0.00 62 942.5
20260510091505 25 158 3.2 4.8 0.00 0.00 0.00 62 942.5
20260510091404 25 142 3.2 4.8 0.00 0.00 0.00 61 942.5
20260510091304 25 169 3.2 4.8 0.00 0.00 0.00 62 942.4
20260510091205 25 116 3.2 4.8 0.00 0.00 0.00 62 942.4
20260510091105 25 145 3.2 4.8 0.00 0.00 0.00 62 942.4
20260510091004 25 119 3.2 4.8 0.00 0.00 0.00 62 942.4
20260510090904 25 106 3.2 4.8 0.00 0.00 0.00 62 942.4
20260510090751 25 105 3.2 4.8 0.00 0.00 0.00 62 942.4
20260510090650 25 77 3.2 4.8 0.00 0.00 0.00 61 942.4
20260510090536 25 99 3.2 4.8 0.00 0.00 0.00 61 942.4
20260510090437 25 78 3.2 4.8 0.00 0.00 0.00 61 942.3
20260510090336 25 94 3.2 4.8 0.00 0.00 0.00 61 942.3
20260510090236 25 116 3.2 4.8 0.00 0.00 0.00 61 942.3
20260510090121 25 125 3.2 4.8 0.00 0.00 0.00 61 942.3
20260510090021 25 133 3.2 4.8 0.00 0.00 0.00 61 942.3
20260510085921 25 144 3.2 4.8 0.00 0.00 0.00 61 942.3
20260510085805 25 152 3.2 4.8 0.00 0.00 0.00 61 942.3
20260510085704 25 103 3.2 4.8 0.00 0.00 0.00 61 942.2
20260510085605 25 139 3.2 4.8 0.00 0.00 0.00 61 942.2
20260510085505 25 132 3.2 4.8 0.00 0.00 0.00 62 942.2
20260510085405 25 97 3.2 4.8 0.00 0.00 0.00 62 942.2
20260510085306 25 132 3.2 4.8 0.00 0.00 0.00 62 942.2
20260510085205 25 137 3.2 3.2 0.00 0.00 0.00 62 942.2
20260510085105 24 153 3.2 3.2 0.00 0.00 0.00 62 942.2
20260510085005 24 140 3.2 4.8 0.00 0.00 0.00 62 942.2
20260510084905 24 156 3.2 4.8 0.00 0.00 0.00 62 942.2
20260510084805 24 149 3.2 4.8 0.00 0.00 0.00 62 942.2
20260510084705 24 151 3.2 4.8 0.00 0.00 0.00 62 942.2
20260510084605 24 122 3.2 4.8 0.00 0.00 0.00 62 942.2
20260510084505 24 201 1.6 4.8 0.00 0.00 0.00 62 942.2
20260510084406 24 185 1.6 4.8 0.00 0.00 0.00 62 942.2
20260510084305 24 186 1.6 4.8 0.00 0.00 0.00 62 942.1
20260510084205 24 193 1.6 4.8 0.00 0.00 0.00 62 942.1
20260510084052 25 183 1.6 4.8 0.00 0.00 0.00 62 942.1
20260510083952 25 173 1.6 4.8 0.00 0.00 0.00 62 942.1
20260510083851 25 181 1.6 4.8 0.00 0.00 0.00 62 942.1
20260510083751 24 175 1.6 4.8 0.00 0.00 0.00 62 942.1
20260510083652 24 184 1.6 3.2 0.00 0.00 0.00 62 942.1
20260510083551 24 0 1.6 3.2 0.00 0.00 0.00 62 942.1
20260510083451 24 166 1.6 3.2 0.00 0.00 0.00 62 942.1
20260510083352 24 0 1.6 3.2 0.00 0.00 0.00 62 942.1
20260510083252 24 241 1.6 3.2 0.00 0.00 0.00 62 942.1
20260510083151 24 169 1.6 3.2 0.00 0.00 0.00 62 942.1
20260510083052 24 171 1.6 3.2 0.00 0.00 0.00 62 942.1
20260510082952 24 0 1.6 3.2 0.00 0.00 0.00 62 942.1
20260510082851 24 156 1.6 3.2 0.00 0.00 0.00 62 942.1
20260510082751 24 136 1.6 3.2 0.00 0.00 0.00 62 942.1
20260510082652 24 158 1.6 3.2 0.00 0.00 0.00 62 942.1
20260510082552 24 152 1.6 3.2 0.00 0.00 0.00 62 942.1
20260510082451 24 157 1.6 3.2 0.00 0.00 0.00 62 942.1
20260510082352 24 118 1.6 3.2 0.00 0.00 0.00 62 942.1
20260510082237 24 178 1.6 3.2 0.00 0.00 0.00 62 942.1
20260510082137 24 119 1.6 3.2 0.00 0.00 0.00 62 942.1
20260510082036 24 0 1.6 3.2 0.00 0.00 0.00 62 942.1
20260510081921 24 90 3.2 4.8 0.00 0.00 0.00 62 942.1
20260510081806 24 89 3.2 4.8 0.00 0.00 0.00 62 942.1
20260510081706 24 62 3.2 4.8 0.00 0.00 0.00 62 942.1
20260510081605 24 163 3.2 4.8 0.00 0.00 0.00 62 942.1
20260510081506 24 137 3.2 4.8 0.00 0.00 0.00 62 942.1
20260510081405 24 156 3.2 4.8 0.00 0.00 0.00 62 942.1
20260510081305 24 99 3.2 4.8 0.00 0.00 0.00 62 942.1
20260510081206 24 130 3.2 4.8 0.00 0.00 0.00 62 942.1
20260510081107 24 84 3.2 4.8 0.00 0.00 0.00 62 942.1
20260510081005 24 132 1.6 4.8 0.00 0.00 0.00 62 942.2
20260510080906 24 114 1.6 4.8 0.00 0.00 0.00 62 942.2
20260510080805 24 104 1.6 4.8 0.00 0.00 0.00 62 942.2
20260510080706 24 70 1.6 4.8 0.00 0.00 0.00 62 942.2
20260510080605 25 110 1.6 4.8 0.00 0.00 0.00 62 942.2
20260510080506 25 66 3.2 4.8 0.00 0.00 0.00 62 942.2
20260510080352 25 103 3.2 6.4 0.00 0.00 0.00 63 942.2
20260510080253 25 74 3.2 6.4 0.00 0.00 0.00 63 942.2
20260510080151 25 0 3.2 6.4 0.00 0.00 0.00 63 942.2
20260510080052 25 85 3.2 6.4 0.00 0.00 0.00 63 942.2
20260510075952 25 122 3.2 6.4 0.00 0.00 0.00 63 942.2
20260510075852 25 130 3.2 6.4 0.00 0.00 0.00 63 942.2
20260510075752 25 113 3.2 6.4 0.00 0.00 0.00 63 942.2
20260510075637 25 108 3.2 6.4 0.00 0.00 0.00 62 942.2
20260510075537 25 86 3.2 6.4 0.00 0.00 0.00 62 942.2
20260510075438 25 88 3.2 6.4 0.00 0.00 0.00 62 942.2
20260510075337 25 108 3.2 6.4 0.00 0.00 0.00 62 942.2
20260510075237 25 137 3.2 6.4 0.00 0.00 0.00 62 942.2
20260510075137 25 100 3.2 6.4 0.00 0.00 0.00 62 942.2
20260510075038 25 84 3.2 6.4 0.00 0.00 0.00 62 942.2
20260510074937 25 157 3.2 9.7 0.00 0.00 0.00 62 942.2
20260510074837 25 93 3.2 9.7 0.00 0.00 0.00 62 942.2
20260510074738 25 116 3.2 9.7 0.00 0.00 0.00 62 942.2
20260510074638 25 129 3.2 9.7 0.00 0.00 0.00 62 942.2
20260510074537 25 127 3.2 9.7 0.00 0.00 0.00 61 942.2
20260510074437 25 118 3.2 9.7 0.00 0.00 0.00 61 942.2
20260510074338 25 118 4.8 9.7 0.00 0.00 0.00 61 942.2
20260510074237 26 80 4.8 9.7 0.00 0.00 0.00 61 942.2
20260510074138 26 72 4.8 9.7 0.00 0.00 0.00 60 942.2
20260510074037 26 108 4.8 9.7 0.00 0.00 0.00 60 942.2
20260510073937 26 68 6.4 9.7 0.00 0.00 0.00 60 942.2
20260510073837 26 12 6.4 9.7 0.00 0.00 0.00 60 942.2
20260510073738 26 99 6.4 9.7 0.00 0.00 0.00 61 942.2
20260510073638 26 82 6.4 9.7 0.00 0.00 0.00 61 942.2
20260510073532 26 125 6.4 9.7 0.00 0.00 0.00 60 942.2
20260510073431 26 153 6.4 9.7 0.00 0.00 0.00 60 942.1
20260510073332 26 172 6.4 9.7 0.00 0.00 0.00 61 942.1
20260510073231 26 171 6.4 9.7 0.00 0.00 0.00 61 942.1
20260510073120 26 142 6.4 9.7 0.00 0.00 0.00 61 942.1
20260510073020 26 142 6.4 9.7 0.00 0.00 0.00 61 942.1
20260510072919 26 161 6.4 9.7 0.00 0.00 0.00 61 942.1
20260510072820 26 169 4.8 9.7 0.00 0.00 0.00 61 942.1
20260510072720 27 176 4.8 9.7 0.00 0.00 0.00 61 942.1
20260510072614 27 181 4.8 9.7 0.00 0.00 0.00 61 942.1
20260510072513 27 169 3.2 9.7 0.00 0.00 0.00 61 942.1
20260510072408 27 135 3.2 6.4 0.00 0.00 0.00 61 942.2
20260510072309 27 169 3.2 6.4 0.00 0.00 0.00 61 942.1
20260510072206 27 107 3.2 6.4 0.00 0.00 0.00 61 942.1
20260510072106 27 86 3.2 6.4 0.00 0.00 0.00 61 942.1
20260510072006 27 133 3.2 9.7 0.00 0.00 0.00 61 942.1
20260510071906 27 137 1.6 9.7 0.00 0.00 0.00 61 942.1
20260510071806 27 117 1.6 9.7 0.00 0.00 0.00 60 942.1
20260510071706 27 145 1.6 9.7 0.00 0.00 0.00 59 942.1
20260510071601 27 0 1.6 9.7 0.00 0.00 0.00 60 942.1
20260510071456 27 287 3.2 9.7 0.00 0.00 0.00 60 942.1
20260510071356 27 251 3.2 9.7 0.00 0.00 0.00 60 942.1
20260510071256 27 184 3.2 9.7 0.00 0.00 0.00 60 942.1
20260510071156 27 194 3.2 9.7 0.00 0.00 0.00 60 942.1
20260510071056 27 207 3.2 9.7 0.00 0.00 0.00 60 942.1
20260510070950 27 182 3.2 9.7 0.00 0.00 0.00 60 942.0
20260510070850 27 243 3.2 9.7 0.00 0.00 0.00 60 942.1
20260510070749 27 0 3.2 9.7 0.00 0.00 0.00 60 942.0
20260510070644 27 313 3.2 9.7 0.00 0.00 0.00 60 942.1
20260510070544 27 209 4.8 9.7 0.00 0.00 0.00 60 942.1
20260510070445 27 293 4.8 9.7 0.00 0.00 0.00 60 942.1
20260510070338 27 328 4.8 9.7 0.00 0.00 0.00 60 942.1
20260510070238 27 255 4.8 11.3 0.00 0.00 0.00 60 942.0
20260510070138 27 242 4.8 12.9 0.00 0.00 0.00 60 942.0
20260510070038 27 289 4.8 12.9 0.00 0.00 0.00 60 942.0
20260510065938 27 300 4.8 12.9 0.00 0.00 0.00 60 942.1
20260510065826 27 294 4.8 12.9 0.00 0.00 0.00 60 942.0
20260510065726 27 284 4.8 12.9 0.00 0.00 0.00 60 942.0
20260510065626 27 286 4.8 12.9 0.00 0.00 0.00 60 942.0
20260510065527 27 254 4.8 12.9 0.00 0.00 0.00 60 942.1
20260510065426 27 255 4.8 12.9 0.00 0.00 0.00 60 942.1
20260510065326 27 215 4.8 12.9 0.00 0.00 0.00 60 942.0
20260510065227 27 236 4.8 12.9 0.00 0.00 0.00 60 942.0
20260510065126 27 244 4.8 11.3 0.00 0.00 0.00 60 942.1
20260510065027 27 293 4.8 11.3 0.00 0.00 0.00 60 942.1
20260510064923 27 256 4.8 11.3 0.00 0.00 0.00 59 942.1
20260510064823 27 248 4.8 11.3 0.00 0.00 0.00 59 942.1
20260510064714 27 268 4.8 11.3 0.00 0.00 0.00 59 942.1
20260510064614 27 300 4.8 11.3 0.00 0.00 0.00 59 942.1
20260510064514 27 256 4.8 11.3 0.00 0.00 0.00 59 942.1
20260510064415 27 300 4.8 11.3 0.00 0.00 0.00 58 942.1
20260510064315 27 159 4.8 11.3 0.00 0.00 0.00 58 942.1
20260510064214 27 264 4.8 11.3 0.00 0.00 0.00 58 942.1
20260510064114 27 285 4.8 9.7 0.00 0.00 0.00 57 942.1
20260510064015 27 265 4.8 9.7 0.00 0.00 0.00 57 942.2
20260510063915 27 295 4.8 9.7 0.00 0.00 0.00 55 942.2
20260510063814 27 284 4.8 9.7 0.00 0.00 0.00 55 942.1
20260510063715 27 257 4.8 9.7 0.00 0.00 0.00 55 942.2
20260510063614 27 249 4.8 9.7 0.00 0.00 0.00 54 942.2
20260510063515 27 272 4.8 9.7 0.00 0.00 0.00 54 942.2
20260510063414 27 10 4.8 9.7 0.00 0.00 0.00 53 942.2
20260510063315 27 299 6.4 9.7 0.00 0.00 0.00 53 942.1
20260510063215 27 310 4.8 9.7 0.00 0.00 0.00 53 942.1
20260510063114 27 303 4.8 9.7 0.00 0.00 0.00 53 942.1
20260510063014 27 272 4.8 9.7 0.00 0.00 0.00 53 942.2
20260510062915 27 279 6.4 9.7 0.00 0.00 0.00 53 942.2
20260510062814 27 301 6.4 9.7 0.00 0.00 0.00 55 942.1
20260510062714 27 285 4.8 9.7 0.00 0.00 0.00 54 942.2
20260510062606 27 314 4.8 8.0 0.00 0.00 0.00 54 942.2
20260510062507 27 266 4.8 8.0 0.00 0.00 0.00 54 942.2
20260510062407 27 277 4.8 8.0 0.00 0.00 0.00 53 942.2
20260510062254 27 304 4.8 8.0 0.00 0.00 0.00 53 942.2
20260510062154 27 254 4.8 8.0 0.00 0.00 0.00 53 942.2
20260510062054 27 288 4.8 8.0 0.00 0.00 0.00 53 942.2
20260510061954 27 312 4.8 8.0 0.00 0.00 0.00 53 942.2
20260510061854 27 293 4.8 8.0 0.00 0.00 0.00 54 942.2
20260510061754 27 290 4.8 9.7 0.00 0.00 0.00 54 942.2
20260510061654 27 309 4.8 9.7 0.00 0.00 0.00 55 942.3
20260510061539 27 309 4.8 9.7 0.00 0.00 0.00 54 942.3
20260510061439 27 286 4.8 9.7 0.00 0.00 0.00 54 942.3
20260510061339 27 313 4.8 9.7 0.00 0.00 0.00 54 942.3
20260510061227 27 293 4.8 9.7 0.00 0.00 0.00 54 942.4
20260510061127 27 279 4.8 9.7 0.00 0.00 0.00 54 942.4
20260510061027 27 286 4.8 9.7 0.00 0.00 0.00 54 942.3
20260510060927 27 289 4.8 9.7 0.00 0.00 0.00 54 942.4
20260510060827 27 266 4.8 9.7 0.00 0.00 0.00 54 942.4
20260510060727 27 284 4.8 9.7 0.00 0.00 0.00 54 942.4
20260510060627 27 341 4.8 9.7 0.00 0.00 0.00 55 942.4
20260510060527 27 313 4.8 9.7 0.00 0.00 0.00 55 942.4
20260510060426 27 256 4.8 9.7 0.00 0.00 0.00 55 942.4
20260510060327 27 298 4.8 9.7 0.00 0.00 0.00 55 942.4
20260510060227 27 308 4.8 9.7 0.00 0.00 0.00 55 942.4
20260510060124 27 268 4.8 9.7 0.00 0.00 0.00 54 942.4
20260510060024 27 270 4.8 8.0 0.00 0.00 0.00 54 942.4
20260510055925 27 307 4.8 8.0 0.00 0.00 0.00 54 942.4
20260510055824 27 314 4.8 9.7 0.00 0.00 0.00 54 942.4
20260510055724 27 242 4.8 9.7 0.00 0.00 0.00 54 942.4
20260510055624 27 271 4.8 9.7 0.00 0.00 0.00 54 942.4
20260510055515 27 277 4.8 9.7 0.00 0.00 0.00 54 942.4
20260510055409 27 294 4.8 9.7 0.00 0.00 0.00 54 942.4
20260510055309 27 319 4.8 9.7 0.00 0.00 0.00 54 942.4
20260510055209 27 265 4.8 9.7 0.00 0.00 0.00 54 942.5
20260510055109 27 301 4.8 9.7 0.00 0.00 0.00 54 942.5
20260510055010 27 277 4.8 9.7 0.00 0.00 0.00 53 942.5
20260510054909 27 264 4.8 11.3 0.00 0.00 0.00 53 942.5
20260510054809 27 308 4.8 11.3 0.00 0.00 0.00 53 942.5
20260510054708 27 280 4.8 11.3 0.00 0.00 0.00 53 942.5
20260510054557 27 240 6.4 11.3 0.00 0.00 0.00 53 942.5
20260510054457 27 276 6.4 11.3 0.00 0.00 0.00 53 942.5
20260510054357 27 271 6.4 11.3 0.00 0.00 0.00 53 942.4
20260510054258 27 276 6.4 11.3 0.00 0.00 0.00 53 942.4
20260510054157 27 277 6.4 11.3 0.00 0.00 0.00 53 942.4
20260510054058 27 290 6.4 11.3 0.00 0.00 0.00 53 942.4
20260510053957 27 284 6.4 11.3 0.00 0.00 0.00 53 942.4
20260510053857 27 292 6.4 9.7 0.00 0.00 0.00 53 942.4
20260510053758 27 289 4.8 9.7 0.00 0.00 0.00 52 942.4
20260510053657 27 263 4.8 9.7 0.00 0.00 0.00 52 942.4
20260510053555 27 314 4.8 8.0 0.00 0.00 0.00 52 942.4
20260510053454 27 321 4.8 6.4 0.00 0.00 0.00 52 942.4
20260510053354 27 284 4.8 6.4 0.00 0.00 0.00 52 942.4
20260510053254 27 306 4.8 6.4 0.00 0.00 0.00 52 942.4
20260510053154 27 298 4.8 6.4 0.00 0.00 0.00 52 942.4
20260510053054 27 277 4.8 6.4 0.00 0.00 0.00 52 942.4
20260510052955 27 260 4.8 6.4 0.00 0.00 0.00 52 942.4
20260510052854 27 269 4.8 6.4 0.00 0.03 0.00 51 942.4
20260510052755 27 306 4.8 6.4 0.00 0.03 0.00 51 942.4
20260510052654 27 278 4.8 6.4 0.00 0.05 0.00 51 942.4
20260510052554 27 277 4.8 6.4 0.00 0.05 0.00 51 942.4
20260510052455 27 298 4.8 6.4 0.00 0.05 0.00 51 942.4
20260510052354 27 296 4.8 6.4 0.00 0.05 0.00 51 942.4
20260510052254 27 296 4.8 6.4 0.00 0.05 0.00 51 942.4
20260510052155 27 292 4.8 6.4 0.00 0.05 0.00 52 942.4
20260510052054 27 270 4.8 6.4 0.00 0.08 0.00 51 942.4
20260510051955 27 257 4.8 8.0 0.00 0.08 0.00 51 942.4
20260510051855 27 251 4.8 8.0 0.00 0.08 0.00 52 942.4
20260510051754 27 284 4.8 8.0 0.00 0.10 0.00 52 942.5
20260510051655 27 258 4.8 8.0 0.00 0.10 0.00 52 942.5
20260510051555 27 281 4.8 8.0 0.00 0.10 0.00 52 942.5
20260510051440 27 293 4.8 8.0 0.00 0.10 0.00 52 942.4
20260510051339 27 258 4.8 8.0 0.00 0.10 0.00 52 942.4
20260510051240 27 316 4.8 8.0 0.00 0.10 0.00 52 942.4
20260510051140 27 261 4.8 8.0 0.00 0.10 0.00 52 942.4
20260510051022 27 254 4.8 8.0 0.00 0.10 0.00 52 942.4
20260510050921 27 276 4.8 8.0 0.00 0.10 0.00 52 942.4
20260510050816 27 281 4.8 8.0 0.00 0.10 0.00 52 942.4
20260510050716 27 288 4.8 8.0 0.00 0.10 0.00 52 942.4
20260510050616 27 286 4.8 8.0 0.00 0.10 0.00 52 942.4
20260510050509 27 295 3.2 8.0 0.00 0.10 0.00 52 942.3
20260510050409 27 310 3.2 6.4 0.00 0.10 0.00 52 942.4
20260510050309 27 282 3.2 6.4 0.00 0.10 0.00 52 942.4
20260510050209 27 291 3.2 6.4 0.00 0.10 0.00 52 942.4
20260510050108 27 302 3.2 4.8 0.00 0.10 0.00 53 942.4
20260510050008 27 298 3.2 4.8 0.00 0.10 0.00 52 942.4
20260510045908 27 266 3.2 4.8 0.00 0.10 0.10 52 942.4
20260510045808 27 291 3.2 4.8 0.00 0.10 0.10 52 942.4
20260510045708 27 243 3.2 4.8 0.00 0.10 0.10 52 942.4
20260510045609 27 238 3.2 4.8 0.00 0.10 0.10 52 942.3
20260510045509 27 245 3.2 4.8 0.00 0.10 0.10 52 942.3
20260510045408 27 311 3.2 6.4 0.00 0.10 0.10 52 942.3
20260510045309 27 311 3.2 6.4 0.00 0.10 0.10 52 942.3
20260510045155 27 280 3.2 6.4 0.00 0.10 0.10 52 942.3
20260510045055 27 292 3.2 6.4 0.00 0.10 0.10 52 942.3
20260510044956 27 287 3.2 6.4 0.00 0.10 0.10 52 942.3
20260510044855 27 279 3.2 6.4 0.00 0.10 0.10 52 942.3
20260510044740 27 284 3.2 6.4 0.00 0.10 0.10 52 942.3
20260510044641 27 312 3.2 6.4 0.00 0.10 0.10 51 942.2
20260510044540 27 281 3.2 6.4 0.00 0.10 0.10 51 942.2
20260510044440 27 301 3.2 6.4 0.00 0.10 0.10 52 942.2
20260510044340 27 277 3.2 6.4 0.00 0.10 0.10 52 942.2
20260510044240 27 296 3.2 6.4 0.00 0.10 0.10 52 942.2
20260510044126 27 286 3.2 6.4 0.00 0.10 0.10 52 942.2
20260510044010 27 301 3.2 6.4 0.00 0.10 0.10 51 942.2
20260510043909 28 242 3.2 6.4 0.00 0.10 0.10 52 942.2
20260510043809 28 269 4.8 6.4 0.00 0.10 0.10 52 942.2
20260510043708 28 284 4.8 6.4 0.00 0.10 0.10 52 942.2
20260510043609 28 281 4.8 6.4 0.00 0.10 0.10 52 942.2
20260510043509 28 282 4.8 6.4 0.00 0.10 0.10 52 942.2
20260510043409 28 285 4.8 6.4 0.00 0.10 0.10 52 942.2
20260510043310 28 298 4.8 6.4 0.00 0.10 0.10 52 942.2
20260510043209 28 288 4.8 6.4 0.00 0.10 0.10 52 942.2
20260510043110 28 287 4.8 6.4 0.00 0.10 0.10 52 942.2
20260510043010 28 317 4.8 6.4 0.00 0.10 0.10 52 942.2
20260510042910 28 319 4.8 6.4 0.00 0.10 0.10 52 942.2
20260510042809 28 320 4.8 6.4 0.00 0.10 0.10 52 942.2
20260510042709 28 334 4.8 6.4 0.00 0.10 0.10 52 942.2
20260510042608 28 349 4.8 6.4 0.00 0.10 0.10 52 942.2
20260510042509 28 354 4.8 6.4 0.00 0.10 0.10 52 942.2
20260510042409 28 350 4.8 6.4 0.00 0.10 0.10 52 942.2
20260510042309 28 14 4.8 6.4 0.00 0.10 0.10 52 942.2
20260510042209 28 9 4.8 6.4 0.00 0.10 0.10 52 942.2
20260510042110 28 349 4.8 6.4 0.00 0.10 0.10 52 942.2
20260510042009 28 353 4.8 6.4 0.00 0.10 0.10 52 942.1
20260510041855 28 310 4.8 6.4 0.00 0.10 0.10 52 942.2
20260510041756 28 349 3.2 6.4 0.00 0.10 0.10 52 942.2
20260510041655 28 349 3.2 6.4 0.00 0.10 0.10 52 942.2
20260510041556 28 348 3.2 6.4 0.00 0.10 0.10 52 942.2
20260510041456 28 327 3.2 6.4 0.00 0.10 0.10 52 942.2
20260510041355 28 355 3.2 6.4 0.00 0.10 0.10 52 942.2
20260510041255 28 9 3.2 6.4 0.00 0.10 0.10 52 942.2
20260510041156 28 8 3.2 6.4 0.00 0.10 0.10 51 942.2
20260510041041 28 3 3.2 6.4 0.00 0.10 0.10 51 942.2
20260510040941 28 351 3.2 6.4 0.00 0.10 0.10 51 942.2
20260510040840 28 336 3.2 6.4 0.00 0.10 0.10 51 942.2
20260510040741 28 333 3.2 6.4 0.00 0.10 0.10 51 942.2
20260510040626 28 334 3.2 6.4 0.00 0.10 0.10 51 942.2
20260510040526 28 357 3.2 6.4 0.00 0.10 0.10 51 942.2
20260510040426 28 340 3.2 6.4 0.00 0.10 0.10 51 942.2
20260510040310 28 346 3.2 6.4 0.00 0.10 0.10 51 942.2
20260510040209 28 355 3.2 6.4 0.00 0.10 0.10 51 942.2
20260510040110 28 350 3.2 6.4 0.00 0.10 0.10 51 942.1
20260510040010 28 352 3.2 4.8 0.00 0.10 0.10 51 942.1
20260510035910 28 355 3.2 4.8 0.00 0.10 0.10 51 942.1
20260510035809 28 353 3.2 6.4 0.00 0.10 0.10 51 942.1
20260510035710 28 3 3.2 6.4 0.00 0.10 0.10 51 942.1
20260510035610 28 349 3.2 6.4 0.00 0.18 0.10 51 942.1
20260510035510 28 350 3.2 6.4 0.00 0.23 0.10 51 942.1
20260510035410 28 350 3.2 6.4 0.00 0.23 0.10 51 942.1
20260510035310 28 358 3.2 6.4 0.00 0.23 0.10 51 942.1
20260510035211 28 0 4.8 6.4 0.00 0.23 0.10 51 942.1
20260510035110 28 340 4.8 6.4 0.00 0.23 0.10 51 942.1
20260510035010 28 304 3.2 6.4 0.00 0.23 0.10 51 942.1
20260510034909 28 327 3.2 6.4 0.00 0.23 0.10 50 942.1
20260510034810 28 328 3.2 6.4 0.00 0.23 0.10 50 942.1
20260510034710 28 355 3.2 6.4 0.00 0.23 0.10 50 942.1
20260510034610 28 345 3.2 6.4 0.00 0.23 0.10 50 942.1
20260510034511 28 352 3.2 4.8 0.00 0.23 0.10 50 942.1
20260510034410 28 349 3.2 4.8 0.00 0.23 0.10 50 942.1
20260510034310 28 354 1.6 4.8 0.00 0.23 0.10 50 942.1
20260510034209 28 357 1.6 3.2 0.00 0.23 0.10 50 942.1
20260510034110 28 336 1.6 3.2 0.00 0.23 0.10 50 942.1
20260510034011 28 353 1.6 3.2 0.00 0.23 0.10 50 942.1
20260510033910 28 343 1.6 4.8 0.00 0.23 0.10 50 942.1
20260510033810 28 341 1.6 4.8 0.00 0.23 0.10 50 942.1
20260510033711 28 36 1.6 4.8 0.00 0.23 0.10 50 942.0
20260510033557 28 343 1.6 4.8 0.00 0.23 0.10 50 942.0
20260510033456 28 0 1.6 4.8 0.00 0.23 0.10 50 942.0
20260510033356 28 59 3.2 4.8 0.00 0.23 0.10 50 942.0
20260510033257 28 65 3.2 4.8 0.00 0.23 0.10 50 942.0
20260510033156 28 63 3.2 4.8 0.00 0.23 0.10 50 942.0
20260510033057 28 71 1.6 4.8 0.00 0.23 0.10 50 942.0
20260510032957 28 70 1.6 4.8 0.00 0.23 0.10 50 942.0
20260510032856 28 62 1.6 3.2 0.00 0.23 0.10 50 942.0
20260510032756 28 63 1.6 3.2 0.00 0.23 0.10 50 942.0
20260510032642 28 64 1.6 3.2 0.00 0.23 0.10 50 942.0
20260510032541 28 65 1.6 3.2 0.00 0.23 0.10 50 942.0
20260510032427 28 53 3.2 3.2 0.00 0.23 0.10 50 942.0
20260510032326 28 60 1.6 3.2 0.00 0.23 0.10 50 942.0
20260510032226 28 76 1.6 3.2 0.00 0.23 0.10 50 942.0
20260510032127 28 77 1.6 3.2 0.00 0.23 0.10 50 941.9
20260510032012 28 68 1.6 3.2 0.00 0.23 0.10 50 941.9
20260510031911 28 71 1.6 3.2 0.00 0.23 0.10 50 941.9
20260510031810 28 60 1.6 3.2 0.00 0.23 0.10 50 941.9
20260510031710 28 62 1.6 3.2 0.00 0.23 0.10 50 941.9
20260510031557 28 79 1.6 3.2 0.00 0.23 0.10 50 941.9
20260510031457 28 79 1.6 3.2 0.00 0.23 0.10 50 941.8
20260510031327 28 64 1.6 3.2 0.00 0.23 0.10 50 941.8
20260510031227 28 91 1.6 3.2 0.00 0.23 0.10 50 941.8
20260510031126 28 0 1.6 3.2 0.00 0.23 0.10 50 941.8
20260510031012 28 93 1.6 3.2 0.00 0.23 0.10 50 941.8
20260510030910 28 81 1.6 3.2 0.00 0.23 0.10 50 941.8
20260510030811 28 91 1.6 3.2 0.00 0.23 0.10 50 941.7
20260510030711 28 80 1.6 3.2 0.00 0.23 0.10 50 941.7
20260510030610 28 81 1.6 3.2 0.00 0.23 0.10 50 941.7
20260510030457 28 112 1.6 3.2 0.00 0.23 0.10 49 941.7
20260510030357 28 67 1.6 3.2 0.00 0.23 0.10 49 941.7
20260510030242 28 96 3.2 4.8 0.00 0.23 0.10 49 941.7
20260510030127 28 76 3.2 4.8 0.00 0.23 0.10 49 941.7
20260510030027 28 82 3.2 4.8 0.00 0.23 0.10 49 941.7
20260510025927 28 0 3.2 4.8 0.00 0.23 0.10 49 941.7
20260510025827 28 65 3.2 4.8 0.00 0.23 0.10 49 941.6
20260510025727 28 73 1.6 4.8 0.00 0.23 0.10 49 941.6
20260510025627 28 94 1.6 4.8 0.00 0.23 0.10 49 941.6
20260510025527 28 74 1.6 4.8 0.00 0.23 0.10 49 941.6
20260510025427 28 86 1.6 4.8 0.00 0.23 0.10 48 941.6
20260510025328 28 83 1.6 4.8 0.00 0.23 0.10 48 941.6
20260510025227 28 65 1.6 4.8 0.00 0.23 0.10 48 941.6
20260510025127 28 86 1.6 4.8 0.00 0.23 0.10 49 941.6
20260510025026 28 0 1.6 4.8 0.00 0.23 0.10 49 941.6
20260510024927 28 0 1.6 4.8 0.00 0.23 0.10 49 941.6
20260510024827 28 0 1.6 4.8 0.00 0.23 0.10 49 941.6
20260510024727 28 105 1.6 4.8 0.00 0.23 0.10 49 941.6
20260510024628 28 59 1.6 4.8 0.00 0.23 0.10 49 941.6
20260510024528 28 48 1.6 3.2 0.00 0.23 0.10 49 941.6
20260510024427 28 0 1.6 3.2 0.00 0.23 0.10 49 941.6
20260510024327 28 87 1.6 3.2 0.00 0.23 0.10 49 941.5
20260510024227 28 0 1.6 3.2 0.00 0.23 0.10 49 941.5
20260510024111 28 0 1.6 3.2 0.00 0.23 0.10 49 941.5
20260510024011 28 97 1.6 3.2 0.00 0.23 0.10 49 941.5
20260510023912 28 91 1.6 3.2 0.00 0.23 0.10 49 941.5
20260510023811 28 83 1.6 3.2 0.00 0.23 0.10 49 941.5
20260510023711 28 103 1.6 3.2 0.00 0.23 0.10 49 941.4
20260510023610 28 91 1.6 3.2 0.00 0.23 0.10 49 941.4
20260510023511 28 117 1.6 3.2 0.00 0.23 0.10 49 941.4
20260510023411 28 114 1.6 3.2 0.00 0.23 0.10 48 941.4
20260510023311 28 60 1.6 3.2 0.00 0.23 0.10 49 941.4
20260510023211 28 92 1.6 4.8 0.00 0.23 0.10 48 941.4
20260510023111 28 80 1.6 6.4 0.00 0.23 0.10 48 941.3
20260510023011 28 0 3.2 6.4 0.00 0.23 0.10 48 941.3
20260510022911 28 78 3.2 6.4 0.00 0.23 0.10 48 941.3
20260510022811 28 112 3.2 6.4 0.00 0.23 0.10 48 941.3
20260510022712 29 0 3.2 6.4 0.00 0.23 0.10 48 941.3
20260510022611 29 58 3.2 6.4 0.00 0.23 0.10 48 941.3
20260510022511 29 80 3.2 6.4 0.00 0.23 0.10 48 941.2
20260510022411 29 68 3.2 6.4 0.00 0.23 0.10 48 941.2
20260510022257 29 81 3.2 6.4 0.00 0.23 0.10 48 941.2
20260510022158 29 59 3.2 6.4 0.00 0.23 0.10 48 941.2
20260510022058 29 60 3.2 6.4 0.00 0.23 0.10 48 941.1
20260510021958 29 44 3.2 4.8 0.00 0.23 0.10 48 941.1
20260510021858 29 72 3.2 4.8 0.00 0.23 0.10 47 941.1
20260510021758 29 0 3.2 4.8 0.00 0.23 0.10 47 941.1
20260510021657 29 54 3.2 4.8 0.00 0.23 0.10 47 941.1
20260510021543 29 70 3.2 4.8 0.00 0.23 0.10 47 941.1
20260510021443 29 73 3.2 8.0 0.00 0.23 0.10 47 941.1
20260510021343 29 53 3.2 8.0 0.00 0.23 0.10 47 941.0
20260510021243 29 51 3.2 8.0 0.00 0.23 0.10 47 941.0
20260510021143 29 106 4.8 8.0 0.00 0.23 0.10 47 941.0
20260510021028 29 76 4.8 8.0 0.00 0.23 0.10 47 941.0
20260510020925 29 85 4.8 8.0 0.00 0.23 0.10 47 941.0
20260510020826 29 88 4.8 9.7 0.00 0.23 0.10 46 940.9
20260510020725 29 349 4.8 9.7 0.00 0.23 0.10 47 940.9
20260510020625 29 353 4.8 9.7 0.00 0.23 0.10 47 940.9
20260510020525 29 27 4.8 9.7 0.00 0.23 0.10 46 940.9
20260510020425 30 25 4.8 9.7 0.00 0.23 0.10 46 940.9
20260510020325 30 31 4.8 9.7 0.00 0.23 0.10 46 940.8
20260510020226 30 21 4.8 9.7 0.00 0.23 0.10 46 940.8
20260510020126 30 31 4.8 9.7 0.00 0.23 0.10 46 940.8
20260510020025 30 25 4.8 9.7 0.00 0.23 0.10 46 940.8
20260510015926 30 19 4.8 9.7 0.00 0.23 0.10 46 940.7
20260510015825 30 39 4.8 9.7 0.00 0.23 0.10 46 940.7
20260510015721 30 33 4.8 9.7 0.00 0.23 0.10 46 940.7
20260510015620 30 36 4.8 9.7 0.00 0.23 0.10 47 940.7
20260510015519 30 21 4.8 9.7 0.00 0.23 0.10 47 940.7
20260510015416 30 59 4.8 11.3 0.00 0.23 0.10 47 940.7
20260510015315 30 5 4.8 11.3 0.00 0.23 0.10 47 940.7
20260510015217 30 32 4.8 11.3 0.00 0.23 0.10 47 940.7
20260510015117 30 24 4.8 11.3 0.00 0.23 0.10 47 940.7
20260510015017 30 5 4.8 14.5 0.00 0.23 0.10 47 940.7
20260510014916 30 11 6.4 14.5 0.00 0.23 0.10 47 940.6
20260510014812 30 33 6.4 14.5 0.00 0.23 0.10 47 940.6
20260510014712 30 36 6.4 14.5 0.00 0.23 0.10 47 940.6
20260510014613 30 23 6.4 14.5 0.00 0.23 0.10 47 940.6
20260510014513 30 15 6.4 14.5 0.00 0.23 0.10 46 940.6
20260510014412 30 8 6.4 14.5 0.00 0.23 0.10 46 940.5
20260510014313 30 15 6.4 14.5 0.00 0.23 0.10 47 940.6
20260510014213 30 1 6.4 14.5 0.00 0.23 0.10 47 940.6
20260510014112 30 52 6.4 14.5 0.00 0.23 0.10 47 940.6
20260510014011 30 47 6.4 14.5 0.00 0.23 0.10 47 940.6
20260510013911 30 18 6.4 14.5 0.00 0.23 0.10 46 940.5
20260510013811 30 45 4.8 12.9 0.00 0.23 0.10 47 940.5
20260510013711 30 17 4.8 12.9 0.00 0.23 0.10 46 940.5
20260510013611 30 57 4.8 12.9 0.00 0.23 0.10 47 940.5
20260510013512 30 59 4.8 12.9 0.00 0.23 0.10 47 940.5
20260510013411 30 58 6.4 12.9 0.00 0.23 0.10 46 940.5
20260510013311 30 49 6.4 14.5 0.00 0.23 0.10 46 940.4
20260510013212 30 35 6.4 14.5 0.00 0.23 0.10 46 940.4
20260510013111 30 35 6.4 14.5 0.00 0.23 0.10 46 940.4
20260510013011 30 43 8.0 14.5 0.00 0.23 0.10 46 940.4
20260510012912 30 57 6.4 14.5 0.00 0.23 0.10 46 940.3
20260510012811 30 44 6.4 14.5 0.00 0.23 0.10 46 940.3
20260510012711 30 77 8.0 14.5 0.00 0.23 0.10 46 940.3
20260510012611 30 55 8.0 14.5 0.00 0.23 0.10 46 940.3
20260510012511 30 35 8.0 14.5 0.00 0.23 0.10 46 940.2
20260510012411 30 19 8.0 14.5 0.00 0.23 0.10 46 940.2
20260510012311 30 48 8.0 14.5 0.00 0.23 0.10 45 940.2
20260510012212 30 38 6.4 14.5 0.00 0.23 0.10 45 940.1
20260510012111 30 28 6.4 12.9 0.00 0.23 0.10 45 940.1
20260510012011 30 41 6.4 12.9 0.00 0.23 0.10 45 940.2
20260510011912 30 29 8.0 12.9 0.00 0.23 0.10 45 940.2
20260510011812 30 49 8.0 12.9 0.00 0.23 0.10 45 940.2
20260510011711 30 69 8.0 12.9 0.00 0.23 0.10 45 940.1
20260510011611 30 96 8.0 14.5 0.00 0.23 0.10 45 940.1
20260510011512 30 19 8.0 14.5 0.00 0.23 0.10 45 940.1
20260510011411 30 44 8.0 14.5 0.00 0.23 0.10 45 940.1
20260510011312 30 69 8.0 14.5 0.00 0.23 0.10 45 940.1
20260510011211 30 37 8.0 14.5 0.00 0.23 0.10 44 940.1
20260510011111 30 39 8.0 14.5 0.00 0.23 0.10 44 940.1
20260510011011 30 18 8.0 14.5 0.00 0.23 0.10 44 940.1
20260510010912 30 56 8.0 14.5 0.00 0.23 0.10 44 940.1
20260510010811 30 39 8.0 14.5 0.00 0.23 0.10 44 940.1
20260510010712 30 39 8.0 14.5 0.00 0.23 0.10 44 940.1
20260510010612 30 58 8.0 14.5 0.00 0.23 0.10 44 940.1
20260510010511 30 19 8.0 14.5 0.00 0.23 0.10 44 940.0
20260510010412 31 75 8.0 14.5 0.00 0.23 0.10 44 940.0
20260510010311 31 57 9.7 14.5 0.00 0.23 0.10 44 940.0
20260510010212 31 46 9.7 14.5 0.00 0.23 0.10 44 940.0
20260510010112 31 12 8.0 14.5 0.00 0.23 0.10 44 940.0
20260510010011 31 49 8.0 14.5 0.00 0.23 0.10 43 940.0
20260510005912 31 56 8.0 14.5 0.00 0.23 0.10 43 939.9
20260510005811 31 55 8.0 16.1 0.00 0.23 0.10 43 939.9
20260510005710 31 359 8.0 16.1 0.00 0.23 0.10 43 939.9
20260510005610 31 65 8.0 16.1 0.00 0.23 0.10 43 939.9
20260510005511 31 24 8.0 16.1 0.00 0.23 0.10 43 939.9
20260510005409 31 35 9.7 16.1 0.00 0.23 0.10 43 939.9
20260510005310 31 54 9.7 16.1 0.00 0.23 0.10 43 939.9
20260510005209 31 68 8.0 16.1 0.00 0.23 0.10 43 939.9
20260510005109 31 49 8.0 16.1 0.00 0.23 0.10 43 939.9
20260510005009 31 25 8.0 16.1 0.00 0.23 0.10 43 939.9
20260510004909 31 32 8.0 16.1 0.00 0.23 0.10 43 939.9
20260510004809 31 35 8.0 14.5 0.00 0.23 0.10 43 939.8
20260510004709 31 58 8.0 14.5 0.00 0.23 0.10 43 939.9
20260510004609 31 30 8.0 14.5 0.00 0.23 0.10 43 939.8
20260510004509 31 50 8.0 14.5 0.00 0.23 0.10 42 939.8
20260510004408 31 37 8.0 14.5 0.00 0.23 0.10 42 939.8
20260510004309 31 70 8.0 14.5 0.00 0.23 0.10 42 939.8
20260510004209 31 50 8.0 14.5 0.00 0.23 0.10 42 939.8
20260510004109 31 91 8.0 14.5 0.00 0.23 0.10 42 939.8
20260510004009 31 113 8.0 14.5 0.00 0.23 0.10 42 939.8
20260510003904 31 32 9.7 14.5 0.00 0.23 0.10 41 939.8
20260510003805 31 87 9.7 16.1 0.00 0.23 0.10 42 939.7
20260510003705 31 44 9.7 16.1 0.00 0.23 0.10 42 939.7
20260510003606 31 38 9.7 16.1 0.00 0.23 0.10 42 939.7
20260510003505 31 64 9.7 16.1 0.00 0.23 0.10 42 939.7
20260510003405 31 61 9.7 16.1 0.00 0.23 0.10 43 939.7
20260510003305 31 63 9.7 16.1 0.00 0.23 0.10 43 939.7
20260510003205 31 21 9.7 16.1 0.00 0.23 0.10 43 939.7
20260510003105 31 46 9.7 16.1 0.00 0.23 0.10 43 939.7
20260510003005 31 49 9.7 16.1 0.00 0.23 0.10 43 939.8
20260510002905 31 85 9.7 17.7 0.00 0.23 0.10 44 939.7
20260510002805 31 39 9.7 19.3 0.00 0.23 0.10 44 939.7
20260510002705 31 31 9.7 19.3 0.00 0.23 0.10 44 939.7
20260510002605 31 38 9.7 19.3 0.00 0.23 0.10 43 939.7
20260510002505 31 84 9.7 19.3 0.00 0.23 0.10 43 939.7
20260510002405 31 41 9.7 19.3 0.00 0.23 0.10 42 939.7
20260510002307 31 48 9.7 19.3 0.00 0.23 0.10 43 939.7
20260510002207 31 39 9.7 19.3 0.00 0.23 0.10 43 939.7
20260510002106 31 60 9.7 19.3 0.00 0.23 0.10 43 939.7
20260510002007 31 38 9.7 19.3 0.00 0.23 0.10 43 939.7
20260510001906 31 26 9.7 19.3 0.00 0.23 0.10 43 939.7
20260510001807 31 23 9.7 19.3 0.00 0.23 0.10 44 939.8
20260510001707 31 61 9.7 17.7 0.00 0.23 0.10 44 939.7
20260510001606 31 51 9.7 17.7 0.00 0.23 0.10 44 939.7
20260510001507 31 66 9.7 16.1 0.00 0.23 0.10 44 939.7
20260510001406 31 115 9.7 16.1 0.00 0.23 0.10 44 939.7
20260510001307 31 58 9.7 17.7 0.00 0.23 0.10 44 939.7
20260510001206 31 77 9.7 19.3 0.00 0.23 0.10 44 939.7
20260510001106 31 69 11.3 19.3 0.00 0.23 0.10 44 939.7
20260510001007 31 58 9.7 19.3 0.00 0.23 0.10 44 939.7
20260510000906 31 79 11.3 19.3 0.00 0.23 0.10 44 939.7
20260510000806 31 69 11.3 19.3 0.00 0.23 0.10 45 939.6
20260510000707 31 90 11.3 20.9 0.00 0.23 0.10 45 939.7
20260510000602 31 79 11.3 20.9 0.00 0.23 0.10 44 939.7
20260510000503 31 63 11.3 20.9 0.00 0.23 0.10 44 939.7
20260510000403 31 60 11.3 20.9 0.00 0.23 0.10 44 939.6
20260510000300 31 42 11.3 20.9 0.00 0.23 0.10 44 939.6
20260510000201 31 53 11.3 20.9 0.00 0.23 0.10 44 939.6
20260510000001 31 39 11.3 20.9 0.00 0.23 0.10 45 939.7
20260509235901 31 64 11.3 20.9 0.00 0.23 0.10 45 939.6
20260509235801 31 58 11.3 20.9 0.00 0.23 0.10 45 939.6
20260509235701 31 98 11.3 20.9 0.00 0.23 0.10 45 939.6
20260509235601 31 49 9.7 17.7 0.00 0.23 0.10 45 939.6
20260509235501 31 60 11.3 17.7 0.00 0.23 0.10 44 939.6
20260509235400 31 60 9.7 17.7 0.00 0.23 0.10 44 939.6
20260509235259 31 48 9.7 20.9 0.00 0.23 0.10 44 939.6
20260509235200 31 66 9.7 20.9 0.00 0.23 0.10 44 939.6
20260509235100 31 65 9.7 20.9 0.00 0.23 0.10 44 939.6
20260509235000 31 123 9.7 20.9 0.00 0.23 0.10 45 939.6
20260509234900 31 119 9.7 20.9 0.00 0.23 0.10 45 939.6
20260509234800 31 52 9.7 20.9 0.00 0.23 0.10 45 939.6
20260509234659 31 75 9.7 20.9 0.00 0.23 0.10 45 939.6
20260509234600 31 232 9.7 20.9 0.00 0.23 0.10 44 939.6
20260509234500 31 59 9.7 20.9 0.00 0.23 0.10 45 939.6
20260509234359 31 40 9.7 20.9 0.00 0.23 0.10 45 939.6
20260509234300 31 65 9.7 20.9 0.00 0.23 0.10 45 939.6
20260509234200 31 54 8.0 17.7 0.00 0.23 0.10 45 939.6
20260509234059 31 28 8.0 17.7 0.00 0.23 0.10 45 939.6
20260509234000 31 74 8.0 17.7 0.00 0.23 0.10 45 939.6
20260509233859 31 79 8.0 17.7 0.00 0.23 0.10 45 939.6
20260509233800 31 71 8.0 17.7 0.00 0.23 0.10 45 939.6
20260509233700 31 67 8.0 17.7 0.00 0.23 0.10 45 939.6
20260509233600 31 30 8.0 16.1 0.00 0.23 0.10 45 939.6
20260509233501 31 80 8.0 19.3 0.00 0.23 0.10 45 939.6
20260509233401 31 77 9.7 19.3 0.00 0.23 0.10 44 939.6
20260509233301 31 80 9.7 19.3 0.00 0.23 0.10 44 939.6
20260509233201 31 61 9.7 19.3 0.00 0.23 0.10 44 939.6
20260509233102 31 40 9.7 19.3 0.00 0.23 0.10 43 939.6
20260509233002 31 35 9.7 19.3 0.00 0.23 0.10 44 939.6
20260509232901 31 90 9.7 19.3 0.00 0.23 0.10 44 939.5
20260509232802 31 50 9.7 19.3 0.00 0.23 0.10 44 939.6
20260509232701 31 62 9.7 19.3 0.00 0.23 0.10 44 939.6
20260509232601 31 44 9.7 19.3 0.00 0.23 0.10 45 939.6
20260509232502 31 67 9.7 19.3 0.00 0.23 0.10 44 939.6
20260509232401 31 90 9.7 20.9 0.00 0.23 0.10 44 939.6
20260509232305 31 72 9.7 20.9 0.00 0.23 0.10 43 939.6
20260509232202 31 83 9.7 20.9 0.00 0.23 0.10 44 939.6
20260509232101 31 86 9.7 20.9 0.00 0.23 0.10 44 939.6
20260509232001 31 83 9.7 20.9 0.00 0.23 0.10 44 939.6
20260509231902 31 129 9.7 20.9 0.00 0.23 0.10 45 939.6
20260509231801 31 103 9.7 20.9 0.00 0.23 0.10 45 939.6
20260509231702 31 73 8.0 20.9 0.00 0.23 0.10 45 939.6
20260509231602 31 75 8.0 20.9 0.00 0.23 0.10 44 939.6
20260509231501 31 85 8.0 20.9 0.00 0.23 0.10 43 939.5
20260509231402 31 118 8.0 16.1 0.00 0.23 0.10 44 939.5
20260509231301 31 39 8.0 16.1 0.00 0.23 0.10 44 939.5
20260509231158 31 27 6.4 16.1 0.00 0.23 0.10 44 939.5
20260509231057 31 68 6.4 16.1 0.00 0.23 0.10 44 939.5
20260509230958 31 64 6.4 16.1 0.00 0.23 0.10 44 939.5
20260509230856 31 98 8.0 17.7 0.00 0.23 0.10 44 939.5
20260509230752 31 74 8.0 17.7 0.00 0.23 0.10 44 939.6
20260509230651 31 81 8.0 19.3 0.00 0.23 0.10 43 939.6
20260509230550 31 48 8.0 19.3 0.00 0.23 0.10 44 939.6
20260509230450 31 51 8.0 19.3 0.00 0.23 0.10 43 939.5
20260509230350 31 59 8.0 19.3 0.00 0.23 0.10 43 939.6
20260509230250 31 0 9.7 19.3 0.00 0.23 0.10 44 939.6
20260509230145 31 38 9.7 19.3 0.00 0.23 0.10 45 939.6
20260509230046 31 88 9.7 19.3 0.00 0.23 0.10 44 939.6
20260509225946 31 78 9.7 19.3 0.00 0.23 0.10 44 939.7
20260509225845 31 48 9.7 19.3 0.00 0.23 0.10 45 939.7
20260509225746 31 42 8.0 19.3 0.00 0.23 0.10 46 939.7
20260509225645 31 72 8.0 19.3 0.00 0.23 0.10 45 939.7
20260509225546 31 53 8.0 16.1 0.00 0.23 0.10 45 939.7
20260509225446 31 92 8.0 16.1 0.00 0.23 0.10 45 939.7
20260509225346 31 91 8.0 16.1 0.00 0.23 0.10 45 939.7
20260509225246 31 69 8.0 14.5 0.00 0.23 0.10 44 939.7
20260509225145 31 97 8.0 14.5 0.00 0.23 0.10 44 939.7
20260509225046 31 69 8.0 20.9 0.00 0.23 0.10 45 939.6
20260509224946 31 137 8.0 20.9 0.00 0.23 0.10 45 939.6
20260509224845 31 56 8.0 20.9 0.00 0.23 0.10 45 939.7
20260509224746 31 69 8.0 20.9 0.00 0.23 0.10 45 939.7
20260509224646 31 41 9.7 20.9 0.00 0.23 0.10 45 939.7
20260509224546 31 62 9.7 20.9 0.00 0.23 0.10 46 939.7
20260509224446 31 44 9.7 20.9 0.00 0.23 0.10 45 939.6
20260509224345 31 81 9.7 20.9 0.00 0.23 0.10 44 939.6
20260509224246 31 97 9.7 20.9 0.00 0.23 0.10 45 939.7
20260509224146 31 37 9.7 20.9 0.00 0.23 0.10 45 939.6
20260509224046 31 63 9.7 20.9 0.00 0.23 0.10 44 939.6
20260509223946 31 345 9.7 17.7 0.00 0.23 0.10 44 939.6
20260509223846 31 50 9.7 17.7 0.00 0.23 0.10 44 939.6
20260509223746 31 63 9.7 17.7 0.00 0.23 0.10 44 939.6
20260509223646 31 82 9.7 17.7 0.00 0.23 0.10 45 939.6
20260509223546 31 39 9.7 17.7 0.00 0.23 0.10 45 939.7
20260509223446 31 53 8.0 17.7 0.00 0.23 0.10 45 939.7
20260509223346 31 49 8.0 17.7 0.00 0.23 0.10 46 939.7
20260509223246 31 66 8.0 19.3 0.00 0.23 0.10 46 939.7
20260509223146 31 86 9.7 19.3 0.00 0.23 0.10 46 939.7
20260509223046 31 31 9.7 19.3 0.00 0.23 0.10 46 939.7
20260509222946 31 18 9.7 19.3 0.00 0.23 0.10 45 939.7
20260509222846 31 66 9.7 19.3 0.00 0.23 0.10 45 939.7
20260509222747 31 58 9.7 19.3 0.00 0.23 0.10 44 939.7
20260509222646 30 87 9.7 19.3 0.00 0.23 0.10 45 939.7
20260509222546 30 70 9.7 19.3 0.00 0.23 0.10 45 939.7
20260509222446 30 60 11.3 19.3 0.00 0.23 0.10 46 939.7
20260509222347 30 62 11.3 19.3 0.00 0.23 0.10 46 939.7
20260509222246 30 75 11.3 19.3 0.00 0.23 0.10 46 939.7
20260509222146 30 70 11.3 17.7 0.00 0.23 0.10 46 939.8
20260509222047 30 53 11.3 17.7 0.00 0.23 0.10 47 939.8
20260509221946 30 61 11.3 17.7 0.00 0.23 0.10 47 939.8
20260509221846 30 77 11.3 17.7 0.00 0.23 0.10 46 939.8
20260509221747 30 57 11.3 17.7 0.00 0.23 0.10 47 939.8
20260509221646 30 40 11.3 17.7 0.00 0.23 0.10 46 939.8
20260509221546 30 39 9.7 17.7 0.00 0.23 0.10 47 939.8
20260509221444 30 49 9.7 17.7 0.00 0.23 0.10 47 939.8
20260509221345 30 32 9.7 17.7 0.00 0.23 0.10 48 939.8
20260509221244 30 60 9.7 17.7 0.00 0.23 0.10 47 939.8
20260509221140 30 32 9.7 17.7 0.00 0.23 0.10 47 939.8
20260509221040 30 52 9.7 17.7 0.00 0.23 0.10 47 939.8
20260509220941 30 76 9.7 17.7 0.00 0.23 0.10 46 939.9
20260509220840 30 68 9.7 17.7 0.00 0.23 0.10 46 939.8
20260509220741 30 71 9.7 17.7 0.00 0.23 0.10 46 939.9
20260509220639 30 36 9.7 17.7 0.00 0.23 0.10 46 939.8
20260509220534 30 83 9.7 17.7 0.00 0.23 0.10 47 939.9
20260509220435 30 76 9.7 17.7 0.00 0.23 0.10 46 939.9
20260509220334 30 72 9.7 17.7 0.00 0.23 0.10 47 939.9
20260509220235 30 47 9.7 17.7 0.00 0.23 0.10 46 939.9
20260509220135 30 54 9.7 17.7 0.00 0.23 0.10 47 939.9
20260509220035 30 68 9.7 17.7 0.00 0.23 0.10 47 940.0
20260509215934 30 20 9.7 17.7 0.00 0.23 0.10 47 940.0
20260509215835 30 52 9.7 16.1 0.00 0.23 0.10 46 940.0
20260509215736 30 43 9.7 16.1 0.00 0.23 0.10 46 940.0
20260509215635 30 39 9.7 16.1 0.00 0.23 0.10 47 940.0
20260509215535 30 45 8.0 16.1 0.00 0.23 0.10 47 939.9
20260509215435 30 46 9.7 19.3 0.00 0.23 0.10 47 940.0
20260509215334 30 78 9.7 19.3 0.00 0.23 0.10 46 939.9
20260509215235 30 66 9.7 19.3 0.00 0.23 0.10 46 940.0
20260509215135 30 13 9.7 19.3 0.00 0.23 0.10 46 940.0
20260509215034 30 60 9.7 19.3 0.00 0.23 0.10 46 940.0
20260509214934 30 56 9.7 19.3 0.00 0.23 0.10 46 940.0
20260509214835 30 73 9.7 19.3 0.00 0.23 0.10 46 940.1
20260509214734 30 37 9.7 19.3 0.00 0.23 0.10 46 940.1
20260509214635 30 42 9.7 19.3 0.00 0.23 0.10 47 940.1
20260509214535 30 84 9.7 19.3 0.00 0.23 0.10 47 940.1
20260509214435 30 40 9.7 17.7 0.00 0.23 0.10 47 940.1
20260509214335 30 50 9.7 16.1 0.00 0.23 0.10 48 940.1
20260509214235 30 61 9.7 16.1 0.00 0.23 0.10 48 940.1
20260509214135 30 63 9.7 16.1 0.00 0.23 0.10 48 940.1
20260509214035 30 47 9.7 16.1 0.00 0.23 0.10 48 940.1
20260509213935 30 93 9.7 16.1 0.00 0.23 0.10 48 940.2
20260509213834 30 89 9.7 16.1 0.00 0.23 0.10 47 940.1
20260509213735 30 22 9.7 16.1 0.00 0.23 0.10 49 940.2
20260509213635 30 54 9.7 16.1 0.00 0.23 0.10 49 940.2
20260509213535 30 40 9.7 16.1 0.00 0.23 0.10 49 940.2
20260509213435 30 81 9.7 16.1 0.00 0.23 0.10 49 940.2
20260509213335 30 74 9.7 16.1 0.00 0.23 0.10 49 940.2
20260509213235 30 29 9.7 16.1 0.00 0.23 0.10 48 940.2
20260509213135 30 32 9.7 16.1 0.00 0.23 0.10 48 940.2
20260509213035 30 52 11.3 16.1 0.00 0.23 0.10 49 940.2
20260509212935 30 351 11.3 16.1 0.00 0.23 0.10 49 940.2
20260509212835 30 9 11.3 19.3 0.00 0.23 0.10 48 940.2
20260509212735 30 19 11.3 19.3 0.00 0.23 0.10 48 940.3
20260509212636 30 39 11.3 19.3 0.00 0.23 0.10 49 940.2
20260509212535 30 89 11.3 19.3 0.00 0.23 0.10 50 940.3
20260509212435 30 38 11.3 19.3 0.00 0.23 0.10 49 940.3
20260509212336 30 22 11.3 19.3 0.00 0.23 0.10 49 940.3
20260509212235 30 357 11.3 19.3 0.00 0.23 0.10 49 940.3
20260509212136 30 17 11.3 19.3 0.00 0.23 0.10 48 940.3
20260509212036 30 13 9.7 19.3 0.00 0.23 0.10 49 940.3
20260509211935 30 43 9.7 19.3 0.00 0.23 0.10 49 940.3
20260509211833 30 33 9.7 17.7 0.00 0.23 0.10 49 940.4
20260509211734 30 4 9.7 17.7 0.00 0.23 0.10 49 940.4
20260509211633 30 357 9.7 17.7 0.00 0.23 0.10 50 940.4
20260509211530 30 43 9.7 17.7 0.00 0.23 0.10 49 940.4
20260509211429 30 22 9.7 17.7 0.00 0.23 0.10 48 940.3
20260509211330 30 36 9.7 16.1 0.00 0.23 0.10 48 940.4
20260509211228 30 61 9.7 16.1 0.00 0.23 0.10 48 940.4
20260509211128 30 47 9.7 17.7 0.00 0.23 0.10 48 940.4
20260509211028 30 14 9.7 17.7 0.00 0.23 0.10 47 940.4
20260509210924 30 55 9.7 17.7 0.00 0.23 0.10 48 940.4
20260509210824 30 87 9.7 17.7 0.00 0.23 0.10 47 940.4
20260509210724 30 65 9.7 17.7 0.00 0.23 0.10 47 940.5
20260509210623 30 66 9.7 17.7 0.00 0.23 0.10 47 940.5
20260509210523 30 72 9.7 17.7 0.00 0.23 0.10 48 940.5
20260509210424 30 72 9.7 17.7 0.00 0.23 0.10 49 940.5
20260509210323 30 134 9.7 17.7 0.00 0.23 0.10 50 940.5
20260509210224 30 197 8.0 17.7 0.00 0.23 0.10 50 940.5
20260509210124 30 63 8.0 17.7 0.00 0.23 0.10 49 940.6
20260509210023 30 48 8.0 17.7 0.00 0.23 0.10 48 940.6
20260509205924 30 52 8.0 17.7 0.00 0.23 0.10 48 940.6
20260509205824 30 128 8.0 16.1 0.00 0.23 0.10 48 940.5
20260509205723 30 148 8.0 17.7 0.00 0.23 0.10 49 940.6
20260509205624 30 77 8.0 17.7 0.00 0.23 0.10 49 940.7
20260509205524 30 75 8.0 17.7 0.00 0.23 0.10 48 940.7
20260509205423 30 47 8.0 17.7 0.00 0.23 0.10 49 940.7
20260509205324 30 5 8.0 17.7 0.00 0.23 0.10 49 940.7
20260509205225 30 152 9.7 17.7 0.00 0.23 0.10 49 940.7
20260509205126 30 96 9.7 17.7 0.00 0.23 0.10 50 940.7
20260509205025 30 72 9.7 17.7 0.00 0.23 0.10 50 940.7
20260509204925 30 72 9.7 19.3 0.00 0.23 0.10 51 940.7
20260509204825 30 90 9.7 19.3 0.00 0.23 0.10 51 940.8
20260509204725 30 79 9.7 19.3 0.00 0.23 0.10 50 940.8
20260509204625 30 72 9.7 19.3 0.00 0.23 0.10 50 940.8
20260509204525 30 79 9.7 19.3 0.00 0.23 0.10 50 940.8
20260509204425 30 43 9.7 19.3 0.00 0.23 0.10 50 940.8
20260509204325 30 83 9.7 19.3 0.00 0.23 0.10 50 940.8
20260509204225 29 159 9.7 19.3 0.00 0.23 0.10 50 940.9
20260509204123 29 63 9.7 19.3 0.00 0.23 0.10 51 940.8
20260509204024 29 41 9.7 19.3 0.00 0.23 0.10 51 940.8
20260509203924 29 79 9.7 17.7 0.00 0.23 0.10 51 940.8
20260509203824 29 55 9.7 17.7 0.00 0.23 0.10 50 940.8
20260509203724 29 48 8.0 17.7 0.00 0.23 0.10 51 940.9
20260509203624 29 23 8.0 14.5 0.00 0.23 0.10 51 940.8
20260509203523 29 33 8.0 16.1 0.00 0.23 0.10 50 940.9
20260509203424 29 28 8.0 17.7 0.00 0.23 0.10 50 940.9
20260509203323 29 34 9.7 17.7 0.00 0.23 0.10 51 940.9
20260509203224 29 31 9.7 17.7 0.00 0.23 0.10 52 941.0
20260509203124 29 42 9.7 17.7 0.00 0.23 0.10 51 941.0
20260509203024 29 23 9.7 22.5 0.00 0.23 0.10 52 941.0
20260509202925 29 49 11.3 22.5 0.00 0.23 0.10 52 941.1
20260509202824 29 57 11.3 22.5 0.00 0.23 0.10 53 941.1
20260509202725 29 28 11.3 22.5 0.00 0.23 0.10 53 941.2
20260509202624 29 79 11.3 22.5 0.00 0.23 0.10 52 941.2
20260509202524 29 63 11.3 22.5 0.00 0.23 0.10 52 941.2
20260509202424 29 48 11.3 22.5 0.00 0.23 0.10 52 941.2
20260509202323 29 65 11.3 22.5 0.00 0.23 0.10 52 941.3
20260509202223 29 49 9.7 22.5 0.00 0.23 0.10 53 941.3
20260509202119 29 45 9.7 22.5 0.00 0.23 0.10 53 941.3
20260509202018 29 45 8.0 17.7 0.00 0.23 0.10 52 941.3
20260509201918 29 45 6.4 17.7 0.00 0.23 0.10 53 941.3
20260509201818 29 50 6.4 17.7 0.00 0.23 0.10 52 941.3
20260509201719 29 34 6.4 16.1 0.00 0.23 0.10 51 941.3
20260509201617 29 17 8.0 16.1 0.00 0.23 0.10 51 941.2
20260509201517 29 10 6.4 16.1 0.00 0.23 0.10 51 941.3
20260509201418 29 16 6.4 17.7 0.00 0.23 0.10 52 941.3
20260509201317 29 20 8.0 19.3 0.00 0.23 0.10 52 941.3
20260509201216 29 0 8.0 19.3 0.00 0.23 0.10 52 941.3
20260509201117 29 0 9.7 22.5 0.00 0.23 0.10 53 941.4
20260509201012 29 44 11.3 22.5 0.00 0.23 0.10 52 941.4
20260509200913 29 37 11.3 22.5 0.00 0.23 0.10 52 941.4
20260509200812 29 50 11.3 22.5 0.00 0.23 0.10 53 941.3
20260509200713 29 13 9.7 22.5 0.00 0.23 0.10 53 941.4
20260509200613 29 58 9.7 22.5 0.00 0.23 0.10 53 941.3
20260509200513 29 70 9.7 22.5 0.00 0.23 0.10 54 941.3
20260509200413 29 41 9.7 22.5 0.00 0.23 0.10 54 941.3
20260509200313 29 12 9.7 22.5 0.00 0.23 0.10 54 941.4
20260509200214 29 32 9.7 22.5 0.00 0.23 0.10 53 941.4
20260509200114 29 26 8.0 22.5 0.00 0.23 0.10 53 941.4
20260509200014 29 23 8.0 17.7 0.00 0.23 0.10 53 941.3
20260509195914 29 63 8.0 17.7 0.00 0.23 0.10 53 941.4
20260509195814 29 64 8.0 17.7 0.00 0.23 0.10 53 941.5
20260509195713 29 87 8.0 17.7 0.00 0.23 0.10 53 941.5
20260509195614 28 122 8.0 17.7 0.00 0.23 0.10 55 941.5
20260509195514 28 74 8.0 17.7 0.00 0.23 0.10 56 941.6
20260509195415 28 96 8.0 17.7 0.00 0.23 0.10 56 941.6
20260509195314 28 46 8.0 17.7 0.00 0.23 0.10 55 941.6
20260509195214 28 26 8.0 17.7 0.00 0.23 0.10 55 941.6
20260509195114 28 107 8.0 17.7 0.00 0.23 0.10 54 941.6
20260509195014 28 54 8.0 17.7 0.00 0.23 0.10 55 941.6
20260509194915 28 51 8.0 17.7 0.00 0.23 0.10 55 941.7
20260509194814 28 75 8.0 17.7 0.00 0.23 0.10 55 941.6
20260509194714 28 37 8.0 17.7 0.00 0.23 0.10 55 941.6
20260509194614 28 37 8.0 17.7 0.00 0.23 0.10 55 941.6
20260509194514 28 73 8.0 17.7 0.00 0.23 0.10 54 941.6
20260509194415 28 112 8.0 17.7 0.00 0.23 0.10 55 941.7
20260509194314 28 137 8.0 17.7 0.00 0.23 0.10 56 941.7
20260509194214 28 158 8.0 17.7 0.00 0.23 0.10 56 941.8
20260509194114 28 40 9.7 17.7 0.00 0.23 0.10 56 941.8
20260509194014 28 65 9.7 17.7 0.00 0.23 0.10 56 941.8
20260509193915 28 65 9.7 17.7 0.00 0.23 0.10 56 941.8
20260509193814 28 98 9.7 17.7 0.00 0.23 0.10 56 941.9
20260509193714 28 87 9.7 17.7 0.00 0.23 0.10 54 941.9
20260509193615 28 52 9.7 19.3 0.00 0.23 0.10 55 941.9
20260509193515 28 9 9.7 19.3 0.00 0.23 0.10 55 941.9
20260509193414 28 28 11.3 19.3 0.00 0.23 0.10 54 941.9
20260509193315 28 24 11.3 19.3 0.00 0.23 0.10 55 941.9
20260509193215 28 48 11.3 19.3 0.00 0.23 0.10 55 942.0
20260509193114 28 73 9.7 19.3 0.00 0.23 0.10 56 942.0
20260509193015 28 72 11.3 19.3 0.00 0.23 0.10 56 942.0
20260509192914 28 3 11.3 19.3 0.00 0.23 0.10 56 942.0
20260509192811 28 49 9.7 19.3 0.00 0.23 0.10 55 942.0
20260509192710 28 36 9.7 19.3 0.00 0.23 0.10 55 942.0
20260509192610 28 46 9.7 19.3 0.00 0.23 0.10 55 942.0
20260509192511 28 0 8.0 14.5 0.00 0.23 0.10 55 942.0
20260509192410 28 355 8.0 14.5 0.00 0.23 0.10 54 942.0
20260509192310 28 9 6.4 14.5 0.00 0.23 0.10 55 942.0
20260509192211 28 96 6.4 14.5 0.00 0.23 0.10 57 942.0
20260509192112 28 349 6.4 14.5 0.00 0.23 0.10 57 942.0
20260509192009 28 357 6.4 14.5 0.00 0.23 0.10 58 942.1
20260509191904 28 36 6.4 14.5 0.00 0.23 0.10 57 942.1
20260509191805 28 6 6.4 14.5 0.00 0.23 0.10 57 942.1
20260509191703 28 265 8.0 14.5 0.00 0.23 0.10 58 942.1
20260509191603 28 145 8.0 14.5 0.00 0.23 0.10 57 942.1
20260509191502 28 162 8.0 14.5 0.00 0.23 0.10 57 942.1
20260509191356 28 160 8.0 14.5 0.00 0.23 0.10 56 942.2
20260509191255 28 131 8.0 14.5 0.00 0.23 0.10 56 942.2
20260509191155 28 115 8.0 14.5 0.00 0.23 0.10 56 942.2
20260509191056 28 116 8.0 14.5 0.00 0.23 0.10 56 942.2
20260509190956 28 71 8.0 14.5 0.00 0.23 0.10 55 942.3
20260509190856 28 73 8.0 14.5 0.00 0.23 0.10 55 942.3
20260509190756 28 150 8.0 16.1 0.00 0.23 0.10 55 942.3
20260509190655 28 113 8.0 16.1 0.00 0.23 0.10 54 942.3
20260509190555 28 101 9.7 16.1 0.00 0.23 0.10 54 942.4
20260509190456 28 139 9.7 16.1 0.00 0.23 0.10 55 942.3
20260509190356 28 116 9.7 16.1 0.00 0.23 0.10 56 942.4
20260509190256 28 69 9.7 16.1 0.00 0.23 0.10 57 942.4
20260509190156 28 88 8.0 16.1 0.00 0.23 0.10 57 942.4
20260509190055 28 7 8.0 16.1 0.00 0.23 0.10 57 942.4
20260509185955 28 358 8.0 16.1 0.00 0.23 0.10 57 942.4
20260509185856 28 32 8.0 16.1 0.00 0.23 0.10 57 942.5
20260509185756 28 50 8.0 19.3 0.00 0.23 0.10 57 942.5
20260509185655 28 34 8.0 19.3 0.00 0.23 0.10 57 942.5
20260509185556 28 55 8.0 19.3 0.00 0.23 0.10 57 942.6
20260509185456 28 59 8.0 19.3 0.00 0.23 0.10 56 942.6
20260509185356 28 44 8.0 19.3 0.00 0.23 0.10 56 942.6
20260509185256 28 73 8.0 19.3 0.00 0.23 0.10 56 942.6
20260509185156 28 57 8.0 19.3 0.00 0.23 0.10 56 942.6
20260509185056 27 139 9.7 19.3 0.00 0.23 0.10 57 942.6
20260509184956 27 116 9.7 19.3 0.00 0.23 0.10 57 942.6
20260509184856 27 120 9.7 19.3 0.00 0.23 0.10 57 942.6
20260509184756 27 82 9.7 19.3 0.00 0.23 0.10 58 942.6
20260509184656 27 91 9.7 17.7 0.00 0.23 0.10 59 942.6
20260509184557 27 63 9.7 17.7 0.00 0.23 0.10 60 942.7
20260509184456 27 64 9.7 17.7 0.00 0.23 0.10 59 942.7
20260509184355 27 19 9.7 17.7 0.00 0.23 0.10 60 942.7
20260509184256 27 38 9.7 17.7 0.00 0.23 0.10 59 942.7
20260509184156 27 47 9.7 17.7 0.00 0.23 0.10 58 942.7
20260509184056 27 103 8.0 16.1 0.00 0.23 0.10 58 942.8
20260509183956 27 75 8.0 16.1 0.00 0.23 0.10 57 942.7
20260509183856 27 121 8.0 16.1 0.00 0.23 0.10 58 942.7
20260509183756 27 53 8.0 16.1 0.00 0.23 0.10 59 942.8
20260509183657 27 60 8.0 16.1 0.00 0.23 0.10 60 942.8
20260509183556 27 45 8.0 16.1 0.00 0.23 0.10 60 942.8
20260509183456 27 20 8.0 16.1 0.00 0.23 0.10 60 942.8
20260509183356 27 72 8.0 16.1 0.00 0.23 0.10 60 942.9
20260509183256 27 13 8.0 16.1 0.00 0.23 0.10 60 942.9
20260509183156 27 49 8.0 16.1 0.00 0.23 0.10 59 942.9
20260509183057 27 62 8.0 17.7 0.00 0.23 0.10 60 942.9
20260509182956 27 26 8.0 17.7 0.00 0.23 0.10 60 942.9
20260509182857 27 5 8.0 17.7 0.00 0.23 0.10 60 942.9
20260509182755 27 44 9.7 17.7 0.00 0.23 0.10 60 943.0
20260509182651 27 45 9.7 17.7 0.00 0.23 0.10 59 943.0
20260509182551 27 29 8.0 17.7 0.00 0.23 0.10 59 943.0
20260509182449 27 56 9.7 17.7 0.00 0.23 0.10 60 943.0
20260509182348 27 102 9.7 17.7 0.00 0.23 0.10 60 943.0
20260509182249 27 60 8.0 17.7 0.00 0.23 0.10 60 943.0
20260509182149 27 42 8.0 17.7 0.00 0.23 0.10 59 943.0
20260509182048 27 35 8.0 17.7 0.00 0.23 0.10 59 943.0
20260509181949 27 48 8.0 16.1 0.00 0.23 0.10 59 943.0
20260509181848 27 34 8.0 16.1 0.00 0.23 0.10 61 943.0
20260509181749 27 61 8.0 16.1 0.00 0.23 0.10 61 943.0
20260509181649 27 45 8.0 17.7 0.00 0.23 0.10 60 943.1
20260509181549 27 51 8.0 17.7 0.00 0.23 0.10 59 943.1
20260509181448 27 70 8.0 17.7 0.00 0.23 0.10 60 943.1
20260509181349 27 4 8.0 17.7 0.00 0.23 0.10 61 943.1
20260509181249 27 44 8.0 17.7 0.00 0.23 0.10 60 943.2
20260509181149 27 32 8.0 17.7 0.00 0.23 0.10 60 943.2
20260509181049 27 33 8.0 17.7 0.00 0.23 0.10 60 943.2
20260509180949 27 70 8.0 17.7 0.00 0.23 0.10 60 943.2
20260509180849 27 116 8.0 17.7 0.00 0.23 0.10 61 943.2
20260509180749 27 46 8.0 17.7 0.00 0.23 0.10 61 943.2
20260509180649 27 81 8.0 19.3 0.00 0.23 0.10 61 943.2